Time,TemperatureF,DewpointF,PressureIn,WindDirection,WindDirectionDegrees,WindSpeedMPH,WindSpeedGustMPH,Humidity,HourlyPrecipIn,Conditions,Clouds,dailyrainin,SoftwareType,DateUTC
2013-10-03 00:01:00,72.7,64.7,29.76,ESE,123,15.0,15.0,76,0.00,,---,0.00,VWS V14.01,2013-10-03 05:01:00,
2013-10-03 00:02:00,72.7,64.7,29.76,SE,127,11.0,17.0,76,0.00,,---,0.00,VWS V14.01,2013-10-03 05:02:00,
2013-10-03 00:03:00,72.7,64.7,29.76,SE,142,12.0,17.0,76,0.00,,---,0.00,VWS V14.01,2013-10-03 05:03:00,
2013-10-03 00:06:00,72.5,64.5,29.76,SE,142,9.0,17.0,76,0.00,,---,0.00,VWS V14.01,2013-10-03 05:06:00,
2013-10-03 00:07:00,72.5,64.5,29.76,SE,143,13.0,17.0,76,0.00,,---,0.00,VWS V14.01,2013-10-03 05:07:00,
2013-10-03 00:08:00,72.5,64.5,29.76,SE,137,15.0,17.0,76,0.00,,---,0.00,VWS V14.01,2013-10-03 05:08:00,
2013-10-03 00:11:00,72.7,64.7,29.76,SE,141,11.0,17.0,76,0.00,,---,0.00,VWS V14.01,2013-10-03 05:11:00,
2013-10-03 00:12:00,72.7,64.7,29.76,SE,130,10.0,17.0,76,0.00,,---,0.00,VWS V14.01,2013-10-03 05:12:00,
2013-10-03 00:13:00,72.5,64.5,29.76,SE,146,10.0,17.0,76,0.00,,---,0.00,VWS V14.01,2013-10-03 05:13:00,
2013-10-03 00:16:00,72.5,64.9,29.75,SE,137,5.0,17.0,77,0.00,,---,0.00,VWS V14.01,2013-10-03 05:16:00,
2013-10-03 00:17:00,72.5,64.9,29.75,SSE,147,9.0,17.0,77,0.00,,---,0.00,VWS V14.01,2013-10-03 05:17:00,
2013-10-03 00:18:00,72.5,64.9,29.75,SE,129,12.0,17.0,77,0.00,,---,0.00,VWS V14.01,2013-10-03 05:18:00,
2013-10-03 00:21:00,72.5,64.9,29.75,SE,138,13.0,15.0,77,0.00,,---,0.00,VWS V14.01,2013-10-03 05:21:00,
2013-10-03 00:22:00,72.5,64.9,29.75,SSE,154,12.0,16.0,77,0.00,,---,0.00,VWS V14.01,2013-10-03 05:22:00,
2013-10-03 00:23:00,72.5,64.9,29.75,SSE,163,10.0,16.0,77,0.00,,---,0.00,VWS V14.01,2013-10-03 05:23:00,
2013-10-03 00:26:00,72.3,64.7,29.75,SE,144,9.0,17.0,77,0.00,,---,0.00,VWS V14.01,2013-10-03 05:26:00,
2013-10-03 00:27:00,72.3,64.7,29.75,SE,128,10.0,17.0,77,0.00,,---,0.00,VWS V14.01,2013-10-03 05:27:00,
2013-10-03 00:28:00,72.3,63.9,29.75,SE,131,7.0,17.0,75,0.00,,---,0.00,VWS V14.01,2013-10-03 05:28:00,
2013-10-03 00:31:00,72.1,64.9,29.75,SE,135,14.0,15.0,78,0.00,,---,0.00,VWS V14.01,2013-10-03 05:31:00,
2013-10-03 00:32:00,72.1,64.9,29.75,SSE,149,12.0,15.0,78,0.00,,---,0.00,VWS V14.01,2013-10-03 05:32:00,
2013-10-03 00:33:00,72.1,64.9,29.75,SE,128,6.0,15.0,78,0.00,,---,0.00,VWS V14.01,2013-10-03 05:33:00,
2013-10-03 00:36:00,72.1,64.9,29.75,SE,141,7.0,15.0,78,0.00,,---,0.00,VWS V14.01,2013-10-03 05:36:00,
2013-10-03 00:37:00,72.1,64.9,29.75,SE,140,6.0,15.0,78,0.00,,---,0.00,VWS V14.01,2013-10-03 05:37:00,
2013-10-03 00:38:00,72.0,64.8,29.75,SE,136,5.0,15.0,78,0.00,,---,0.00,VWS V14.01,2013-10-03 05:38:00,
2013-10-03 00:42:00,72.0,65.1,29.75,SE,133,6.0,11.0,79,0.00,,---,0.00,VWS V14.01,2013-10-03 05:42:00,
2013-10-03 00:43:00,72.0,65.1,29.75,SE,135,10.0,13.0,79,0.00,,---,0.00,VWS V14.01,2013-10-03 05:43:00,
2013-10-03 00:47:00,72.0,65.1,29.75,SE,138,11.0,13.0,79,0.00,,---,0.00,VWS V14.01,2013-10-03 05:47:00,
2013-10-03 00:48:00,72.0,65.1,29.75,SE,130,6.0,13.0,79,0.00,,---,0.00,VWS V14.01,2013-10-03 05:48:00,
2013-10-03 00:52:00,72.0,65.1,29.75,SE,140,8.0,11.0,79,0.00,,---,0.00,VWS V14.01,2013-10-03 05:52:00,
2013-10-03 00:53:00,72.0,65.1,29.75,SE,140,10.0,11.0,79,0.00,,---,0.00,VWS V14.01,2013-10-03 05:53:00,
2013-10-03 00:57:00,72.0,65.1,29.75,SE,131,6.0,14.0,79,0.00,,---,0.00,VWS V14.01,2013-10-03 05:57:00,
2013-10-03 00:58:00,72.1,65.2,29.75,SE,144,7.0,14.0,79,0.00,,---,0.00,VWS V14.01,2013-10-03 05:58:00,
2013-10-03 00:59:00,72.1,65.2,29.75,SE,126,7.0,14.0,79,0.00,,---,0.00,VWS V14.01,2013-10-03 05:59:00,
2013-10-03 01:02:00,72.3,65.4,29.75,SE,132,10.0,11.0,79,0.00,,---,0.00,VWS V14.01,2013-10-03 06:02:00,
2013-10-03 01:03:00,72.3,65.4,29.75,SE,128,9.0,11.0,79,0.00,,---,0.00,VWS V14.01,2013-10-03 06:03:00,
2013-10-03 01:04:00,72.3,65.4,29.75,SE,126,9.0,11.0,79,0.00,,---,0.00,VWS V14.01,2013-10-03 06:04:00,
2013-10-03 01:07:00,72.3,65.4,29.75,ESE,123,11.0,14.0,79,0.00,,---,0.00,VWS V14.01,2013-10-03 06:07:00,
2013-10-03 01:08:00,72.3,65.4,29.75,SE,128,11.0,14.0,79,0.00,,---,0.00,VWS V14.01,2013-10-03 06:08:00,
2013-10-03 01:09:00,72.3,65.4,29.75,SE,126,10.0,14.0,79,0.00,,---,0.00,VWS V14.01,2013-10-03 06:09:00,
2013-10-03 01:12:00,72.3,65.4,29.75,SE,138,8.0,11.0,79,0.00,,---,0.00,VWS V14.01,2013-10-03 06:12:00,
2013-10-03 01:13:00,72.3,65.4,29.75,ESE,123,10.0,11.0,79,0.00,,---,0.00,VWS V14.01,2013-10-03 06:13:00,
2013-10-03 01:14:00,72.3,65.4,29.75,SE,143,7.0,11.0,79,0.00,,---,0.00,VWS V14.01,2013-10-03 06:14:00,
2013-10-03 01:17:00,72.1,65.2,29.75,SE,130,9.0,13.0,79,0.00,,---,0.00,VWS V14.01,2013-10-03 06:17:00,
2013-10-03 01:18:00,72.1,65.2,29.75,SE,140,9.0,13.0,79,0.00,,---,0.00,VWS V14.01,2013-10-03 06:18:00,
2013-10-03 01:19:00,72.1,65.2,29.75,ESE,122,10.0,13.0,79,0.00,,---,0.00,VWS V14.01,2013-10-03 06:19:00,
2013-10-03 01:22:00,72.3,65.4,29.75,ESE,113,15.0,15.0,79,0.00,,---,0.00,VWS V14.01,2013-10-03 06:22:00,
2013-10-03 01:23:00,72.3,65.4,29.75,SE,134,8.0,15.0,79,0.00,,---,0.00,VWS V14.01,2013-10-03 06:23:00,
2013-10-03 01:24:00,72.3,65.4,29.75,ESE,117,8.0,15.0,79,0.00,,---,0.00,VWS V14.01,2013-10-03 06:24:00,
2013-10-03 01:27:00,72.3,65.4,29.75,SE,130,6.0,15.0,79,0.00,,---,0.00,VWS V14.01,2013-10-03 06:27:00,
2013-10-03 01:28:00,72.3,65.4,29.75,SE,127,11.0,15.0,79,0.00,,---,0.00,VWS V14.01,2013-10-03 06:28:00,
2013-10-03 01:29:00,72.3,65.4,29.75,SE,142,13.0,15.0,79,0.00,,---,0.00,VWS V14.01,2013-10-03 06:29:00,
2013-10-03 01:32:00,72.3,65.4,29.74,SSE,150,11.0,15.0,79,0.00,,---,0.00,VWS V14.01,2013-10-03 06:32:00,
2013-10-03 01:33:00,72.3,65.4,29.74,SE,138,13.0,15.0,79,0.00,,---,0.00,VWS V14.01,2013-10-03 06:33:00,
2013-10-03 01:34:00,72.3,65.4,29.74,SE,128,12.0,16.0,79,0.00,,---,0.00,VWS V14.01,2013-10-03 06:34:00,
2013-10-03 01:37:00,72.3,65.4,29.74,SSE,147,8.0,16.0,79,0.00,,---,0.00,VWS V14.01,2013-10-03 06:37:00,
2013-10-03 01:38:00,72.3,65.4,29.74,SE,132,10.0,16.0,79,0.00,,---,0.00,VWS V14.01,2013-10-03 06:38:00,
2013-10-03 01:39:00,72.3,65.4,29.74,SE,132,11.0,16.0,79,0.00,,---,0.00,VWS V14.01,2013-10-03 06:39:00,
2013-10-03 01:42:00,72.3,65.4,29.74,SE,140,8.0,15.0,79,0.00,,---,0.00,VWS V14.01,2013-10-03 06:42:00,
2013-10-03 01:43:00,72.3,65.4,29.74,SE,128,11.0,15.0,79,0.00,,---,0.00,VWS V14.01,2013-10-03 06:43:00,
2013-10-03 01:44:00,72.3,65.4,29.74,SE,126,8.0,15.0,79,0.00,,---,0.00,VWS V14.01,2013-10-03 06:44:00,
2013-10-03 01:47:00,72.5,65.6,29.74,SSE,148,12.0,18.0,79,0.00,,---,0.00,VWS V14.01,2013-10-03 06:47:00,
2013-10-03 01:48:00,72.5,65.6,29.74,SE,139,12.0,18.0,79,0.00,,---,0.00,VWS V14.01,2013-10-03 06:48:00,
2013-10-03 01:49:00,72.5,65.6,29.74,SE,139,10.0,18.0,79,0.00,,---,0.00,VWS V14.01,2013-10-03 06:49:00,
2013-10-03 01:52:00,72.5,65.6,29.74,SSE,155,8.0,17.0,79,0.00,,---,0.00,VWS V14.01,2013-10-03 06:52:00,
2013-10-03 01:53:00,72.5,65.6,29.74,SSE,147,12.0,17.0,79,0.00,,---,0.00,VWS V14.01,2013-10-03 06:53:00,
2013-10-03 01:54:00,72.5,65.6,29.74,SE,134,11.0,17.0,79,0.00,,---,0.00,VWS V14.01,2013-10-03 06:54:00,
2013-10-03 01:55:00,72.5,65.6,29.74,SE,144,11.0,17.0,79,0.00,,---,0.00,VWS V14.01,2013-10-03 06:55:00,
2013-10-03 01:57:00,72.5,65.6,29.74,SE,136,12.0,17.0,79,0.00,,---,0.00,VWS V14.01,2013-10-03 06:57:00,
2013-10-03 01:58:00,72.5,65.6,29.74,SE,142,12.0,18.0,79,0.00,,---,0.00,VWS V14.01,2013-10-03 06:58:00,
2013-10-03 01:59:00,72.5,65.6,29.74,SSE,155,13.0,18.0,79,0.00,,---,0.00,VWS V14.01,2013-10-03 06:59:00,
2013-10-03 02:00:00,72.3,65.4,29.73,SE,134,6.0,18.0,79,0.00,,---,0.00,VWS V14.01,2013-10-03 07:00:00,
2013-10-03 02:02:00,72.3,65.4,29.73,SE,139,7.0,14.0,79,0.00,,---,0.00,VWS V14.01,2013-10-03 07:02:00,
2013-10-03 02:03:00,72.3,65.4,29.73,SE,134,8.0,14.0,79,0.00,,---,0.00,VWS V14.01,2013-10-03 07:03:00,
2013-10-03 02:04:00,72.3,65.4,29.73,SE,136,14.0,14.0,79,0.00,,---,0.00,VWS V14.01,2013-10-03 07:04:00,
2013-10-03 02:05:00,72.1,65.2,29.73,SE,146,9.0,14.0,79,0.00,,---,0.00,VWS V14.01,2013-10-03 07:05:00,
2013-10-03 02:07:00,72.1,65.6,29.73,SE,138,10.0,14.0,80,0.00,,---,0.00,VWS V14.01,2013-10-03 07:07:00,
2013-10-03 02:08:00,72.1,65.6,29.73,SE,142,5.0,14.0,80,0.00,,---,0.00,VWS V14.01,2013-10-03 07:08:00,
2013-10-03 02:09:00,72.1,65.6,29.73,SE,142,7.0,14.0,80,0.00,,---,0.00,VWS V14.01,2013-10-03 07:09:00,
2013-10-03 02:10:00,72.1,65.6,29.73,SSE,148,10.0,14.0,80,0.00,,---,0.00,VWS V14.01,2013-10-03 07:10:00,
2013-10-03 02:12:00,72.1,65.6,29.73,SE,132,10.0,16.0,80,0.00,,---,0.00,VWS V14.01,2013-10-03 07:12:00,
2013-10-03 02:13:00,72.0,65.5,29.73,SE,142,10.0,16.0,80,0.00,,---,0.00,VWS V14.01,2013-10-03 07:13:00,
2013-10-03 02:14:00,72.0,65.5,29.73,SSE,151,11.0,16.0,80,0.00,,---,0.00,VWS V14.01,2013-10-03 07:14:00,
2013-10-03 02:15:00,72.0,64.4,29.73,SE,142,10.0,16.0,77,0.00,,---,0.00,VWS V14.01,2013-10-03 07:15:00,
2013-10-03 02:17:00,72.0,65.5,29.73,SSE,163,10.0,16.0,80,0.00,,---,0.00,VWS V14.01,2013-10-03 07:17:00,
2013-10-03 02:18:00,72.0,65.5,29.73,SSE,148,11.0,16.0,80,0.00,,---,0.00,VWS V14.01,2013-10-03 07:18:00,
2013-10-03 02:19:00,72.0,65.5,29.73,SE,142,11.0,16.0,80,0.00,,---,0.00,VWS V14.01,2013-10-03 07:19:00,
2013-10-03 02:20:00,72.1,65.6,29.73,SE,144,7.0,16.0,80,0.00,,---,0.00,VWS V14.01,2013-10-03 07:20:00,
2013-10-03 02:22:00,72.0,65.5,29.73,SE,146,11.0,14.0,80,0.00,,---,0.00,VWS V14.01,2013-10-03 07:22:00,
2013-10-03 02:24:00,72.1,65.6,29.73,SE,140,10.0,15.0,80,0.00,,---,0.00,VWS V14.01,2013-10-03 07:24:00,
2013-10-03 02:25:00,72.1,65.6,29.73,SE,141,3.0,15.0,80,0.00,,---,0.00,VWS V14.01,2013-10-03 07:25:00,
2013-10-03 02:27:00,72.1,65.6,29.73,SSE,148,10.0,15.0,80,0.00,,---,0.00,VWS V14.01,2013-10-03 07:27:00,
2013-10-03 02:29:00,72.1,65.6,29.73,SE,141,12.0,15.0,80,0.00,,---,0.00,VWS V14.01,2013-10-03 07:29:00,
2013-10-03 02:30:00,72.1,65.6,29.73,SSE,150,2.0,15.0,80,0.00,,---,0.00,VWS V14.01,2013-10-03 07:30:00,
2013-10-03 02:32:00,72.1,65.6,29.73,SE,140,7.0,9.0,80,0.00,,---,0.00,VWS V14.01,2013-10-03 07:32:00,
2013-10-03 02:34:00,72.1,65.9,29.73,SE,146,9.0,15.0,81,0.00,,---,0.00,VWS V14.01,2013-10-03 07:34:00,
2013-10-03 02:35:00,72.1,65.6,29.73,SSE,151,3.0,15.0,80,0.00,,---,0.00,VWS V14.01,2013-10-03 07:35:00,
2013-10-03 02:37:00,72.1,65.6,29.73,SSE,148,8.0,15.0,80,0.00,,---,0.00,VWS V14.01,2013-10-03 07:37:00,
2013-10-03 02:39:00,72.3,65.8,29.73,SSE,150,10.0,15.0,80,0.00,,---,0.00,VWS V14.01,2013-10-03 07:39:00,
2013-10-03 02:40:00,72.3,65.8,29.73,SSE,149,5.0,15.0,80,0.00,,---,0.00,VWS V14.01,2013-10-03 07:40:00,
2013-10-03 02:42:00,72.3,65.8,29.73,SE,144,3.0,10.0,80,0.00,,---,0.00,VWS V14.01,2013-10-03 07:42:00,
2013-10-03 02:44:00,72.3,65.8,29.73,SE,145,9.0,11.0,80,0.00,,---,0.00,VWS V14.01,2013-10-03 07:44:00,
2013-10-03 02:45:00,72.3,65.8,29.73,SE,140,6.0,12.0,80,0.00,,---,0.00,VWS V14.01,2013-10-03 07:45:00,
2013-10-03 02:47:00,72.3,65.8,29.73,SSE,148,9.0,12.0,80,0.00,,---,0.00,VWS V14.01,2013-10-03 07:47:00,
2013-10-03 02:49:00,72.3,65.8,29.73,SE,138,3.0,12.0,80,0.00,,---,0.00,VWS V14.01,2013-10-03 07:49:00,
2013-10-03 02:50:00,72.5,66.0,29.73,SE,136,10.0,10.0,80,0.00,,---,0.00,VWS V14.01,2013-10-03 07:50:00,
2013-10-03 02:51:00,72.5,66.0,29.73,SE,137,10.0,11.0,80,0.00,,---,0.00,VWS V14.01,2013-10-03 07:51:00,
2013-10-03 02:52:00,72.5,66.3,29.73,SSE,148,6.0,15.0,81,0.00,,---,0.00,VWS V14.01,2013-10-03 07:52:00,
2013-10-03 02:54:00,72.7,66.2,29.73,SE,136,13.0,15.0,80,0.00,,---,0.00,VWS V14.01,2013-10-03 07:54:00,
2013-10-03 02:55:00,72.7,65.8,29.73,SE,134,9.0,15.0,79,0.00,,---,0.00,VWS V14.01,2013-10-03 07:55:00,
2013-10-03 02:56:00,72.7,65.8,29.73,SSE,150,12.0,15.0,79,0.00,,---,0.00,VWS V14.01,2013-10-03 07:56:00,
2013-10-03 02:57:00,72.7,65.8,29.73,SE,130,11.0,15.0,79,0.00,,---,0.00,VWS V14.01,2013-10-03 07:57:00,
2013-10-03 02:59:00,72.8,65.9,29.73,SSE,152,9.0,16.0,79,0.00,,---,0.00,VWS V14.01,2013-10-03 07:59:00,
2013-10-03 03:00:00,72.8,65.9,29.73,SE,139,8.0,9.0,79,0.00,,---,0.00,VWS V14.01,2013-10-03 08:00:00,
2013-10-03 03:01:00,72.8,65.9,29.73,SSE,147,9.0,17.0,79,0.00,,---,0.00,VWS V14.01,2013-10-03 08:01:00,
2013-10-03 03:02:00,72.8,65.9,29.73,SE,142,12.0,17.0,79,0.00,,---,0.00,VWS V14.01,2013-10-03 08:02:00,
2013-10-03 03:04:00,72.8,65.9,29.73,SE,140,11.0,17.0,79,0.00,,---,0.00,VWS V14.01,2013-10-03 08:04:00,
2013-10-03 03:05:00,72.8,65.9,29.73,SE,144,4.0,17.0,79,0.00,,---,0.00,VWS V14.01,2013-10-03 08:05:00,
2013-10-03 03:06:00,72.8,65.9,29.73,SSE,148,12.0,17.0,79,0.00,,---,0.00,VWS V14.01,2013-10-03 08:06:00,
2013-10-03 03:07:00,72.8,65.9,29.73,SSE,148,10.0,17.0,79,0.00,,---,0.00,VWS V14.01,2013-10-03 08:07:00,
2013-10-03 03:09:00,72.8,65.9,29.73,SE,139,13.0,17.0,79,0.00,,---,0.00,VWS V14.01,2013-10-03 08:09:00,
2013-10-03 03:11:00,72.8,65.9,29.73,SE,146,12.0,15.0,79,0.00,,---,0.00,VWS V14.01,2013-10-03 08:11:00,
2013-10-03 03:12:00,72.8,65.9,29.73,SSE,151,5.0,15.0,79,0.00,,---,0.00,VWS V14.01,2013-10-03 08:12:00,
2013-10-03 03:14:00,72.8,65.9,29.73,SE,129,10.0,17.0,79,0.00,,---,0.00,VWS V14.01,2013-10-03 08:14:00,
2013-10-03 03:16:00,72.8,65.9,29.72,SSE,153,12.0,17.0,79,0.00,,---,0.00,VWS V14.01,2013-10-03 08:16:00,
2013-10-03 03:17:00,72.8,65.9,29.72,SE,146,11.0,17.0,79,0.00,,---,0.00,VWS V14.01,2013-10-03 08:17:00,
2013-10-03 03:19:00,72.7,65.8,29.72,SE,140,9.0,17.0,79,0.00,,---,0.00,VWS V14.01,2013-10-03 08:19:00,
2013-10-03 03:21:00,72.7,65.8,29.72,SE,139,11.0,15.0,79,0.00,,---,0.00,VWS V14.01,2013-10-03 08:21:00,
2013-10-03 03:22:00,72.7,65.8,29.72,SSE,147,12.0,15.0,79,0.00,,---,0.00,VWS V14.01,2013-10-03 08:22:00,
2013-10-03 03:24:00,72.7,65.8,29.72,SE,146,8.0,15.0,79,0.00,,---,0.00,VWS V14.01,2013-10-03 08:24:00,
2013-10-03 03:26:00,72.7,66.2,29.72,SE,146,6.0,15.0,80,0.00,,---,0.00,VWS V14.01,2013-10-03 08:26:00,
2013-10-03 03:27:00,72.7,66.2,29.72,SSE,151,9.0,15.0,80,0.00,,---,0.00,VWS V14.01,2013-10-03 08:27:00,
2013-10-03 03:29:00,72.7,66.2,29.72,SE,144,11.0,15.0,80,0.00,,---,0.00,VWS V14.01,2013-10-03 08:29:00,
2013-10-03 03:31:00,72.7,66.2,29.72,SE,146,11.0,14.0,80,0.00,,---,0.00,VWS V14.01,2013-10-03 08:31:00,
2013-10-03 03:32:00,72.7,66.2,29.72,SE,142,12.0,14.0,80,0.00,,---,0.00,VWS V14.01,2013-10-03 08:32:00,
2013-10-03 03:34:00,72.5,66.0,29.72,SE,136,7.0,14.0,80,0.00,,---,0.00,VWS V14.01,2013-10-03 08:34:00,
2013-10-03 03:36:00,72.5,66.0,29.72,SSE,158,7.0,14.0,80,0.00,,---,0.00,VWS V14.01,2013-10-03 08:36:00,
2013-10-03 03:37:00,72.5,66.0,29.72,SSE,158,3.0,14.0,80,0.00,,---,0.00,VWS V14.01,2013-10-03 08:37:00,
2013-10-03 03:39:00,72.3,65.8,29.72,SE,140,9.0,14.0,80,0.00,,---,0.00,VWS V14.01,2013-10-03 08:39:00,
2013-10-03 03:41:00,72.3,66.2,29.72,SE,146,7.0,11.0,81,0.00,,---,0.00,VWS V14.01,2013-10-03 08:41:00,
2013-10-03 03:42:00,72.3,66.2,29.72,SE,146,4.0,11.0,81,0.00,,---,0.00,VWS V14.01,2013-10-03 08:42:00,
2013-10-03 03:43:00,72.3,66.2,29.72,SE,134,11.0,12.0,81,0.00,,---,0.00,VWS V14.01,2013-10-03 08:43:00,
2013-10-03 03:44:00,72.3,66.2,29.72,SSE,152,5.0,16.0,81,0.00,,---,0.00,VWS V14.01,2013-10-03 08:44:00,
2013-10-03 03:47:00,72.3,66.2,29.72,SE,138,11.0,16.0,81,0.00,,---,0.00,VWS V14.01,2013-10-03 08:47:00,
2013-10-03 03:48:00,72.3,66.2,29.72,SSE,147,8.0,16.0,81,0.00,,---,0.00,VWS V14.01,2013-10-03 08:48:00,
2013-10-03 03:49:00,72.1,65.9,29.72,SSE,152,9.0,16.0,81,0.00,,---,0.00,VWS V14.01,2013-10-03 08:49:00,
2013-10-03 03:52:00,72.1,65.9,29.72,SSE,152,5.0,12.0,81,0.00,,---,0.00,VWS V14.01,2013-10-03 08:52:00,
2013-10-03 03:53:00,72.1,65.9,29.72,SSE,150,4.0,12.0,81,0.00,,---,0.00,VWS V14.01,2013-10-03 08:53:00,
2013-10-03 03:54:00,72.1,65.9,29.72,SE,142,6.0,12.0,81,0.00,,---,0.00,VWS V14.01,2013-10-03 08:54:00,
2013-10-03 03:57:00,72.1,66.3,29.72,SE,146,9.0,12.0,82,0.00,,---,0.00,VWS V14.01,2013-10-03 08:57:00,
2013-10-03 03:58:00,72.1,66.3,29.72,SE,146,9.0,12.0,82,0.00,,---,0.00,VWS V14.01,2013-10-03 08:58:00,
2013-10-03 03:59:00,72.1,66.3,29.71,SSE,153,8.0,12.0,82,0.00,,---,0.00,VWS V14.01,2013-10-03 08:59:00,
2013-10-03 04:02:00,72.0,66.2,29.71,SE,143,7.0,13.0,82,0.00,,---,0.00,VWS V14.01,2013-10-03 09:02:00,
2013-10-03 04:03:00,72.0,66.2,29.71,SE,144,8.0,13.0,82,0.00,,---,0.00,VWS V14.01,2013-10-03 09:03:00,
2013-10-03 04:04:00,72.0,66.2,29.71,SSE,150,9.0,13.0,82,0.00,,---,0.00,VWS V14.01,2013-10-03 09:04:00,
2013-10-03 04:07:00,72.0,66.2,29.71,SE,145,7.0,13.0,82,0.00,,---,0.00,VWS V14.01,2013-10-03 09:07:00,
2013-10-03 04:08:00,72.0,66.2,29.71,SSE,148,11.0,13.0,82,0.00,,---,0.00,VWS V14.01,2013-10-03 09:08:00,
2013-10-03 04:09:00,72.0,66.2,29.71,SSE,151,2.0,13.0,82,0.00,,---,0.00,VWS V14.01,2013-10-03 09:09:00,
2013-10-03 04:10:00,71.8,66.0,29.71,SSE,147,7.0,13.0,82,0.00,,---,0.00,VWS V14.01,2013-10-03 09:10:00,
2013-10-03 04:12:00,71.8,66.0,29.71,SSE,151,13.0,15.0,82,0.00,,---,0.00,VWS V14.01,2013-10-03 09:12:00,
2013-10-03 04:13:00,71.8,66.4,29.71,SSE,153,9.0,15.0,83,0.00,,---,0.00,VWS V14.01,2013-10-03 09:13:00,
2013-10-03 04:15:00,72.0,66.6,29.71,SE,138,15.0,17.0,83,0.00,,---,0.00,VWS V14.01,2013-10-03 09:15:00,
2013-10-03 04:17:00,72.5,66.7,29.71,SE,138,9.0,20.0,82,0.00,,---,0.00,VWS V14.01,2013-10-03 09:17:00,
2013-10-03 04:18:00,72.5,66.3,29.71,SE,142,7.0,20.0,81,0.00,,---,0.00,VWS V14.01,2013-10-03 09:18:00,
2013-10-03 04:20:00,72.7,66.5,29.71,SE,131,15.0,20.0,81,0.00,,---,0.00,VWS V14.01,2013-10-03 09:20:00,
2013-10-03 04:22:00,72.5,66.3,29.71,SE,134,12.0,14.0,81,0.00,,---,0.00,VWS V14.01,2013-10-03 09:22:00,
2013-10-03 04:23:00,72.5,66.3,29.71,SE,132,11.0,14.0,81,0.00,,---,0.00,VWS V14.01,2013-10-03 09:23:00,
2013-10-03 04:25:00,72.3,66.2,29.71,ESE,123,11.0,14.0,81,0.00,,---,0.00,VWS V14.01,2013-10-03 09:25:00,
2013-10-03 04:27:00,72.1,66.3,29.71,ESE,123,3.0,14.0,82,0.00,,---,0.00,VWS V14.01,2013-10-03 09:27:00,
2013-10-03 04:28:00,72.0,66.2,29.71,ESE,123,7.0,14.0,82,0.00,,---,0.00,VWS V14.01,2013-10-03 09:28:00,
2013-10-03 04:29:00,72.0,66.2,29.71,SE,125,8.0,14.0,82,0.00,,---,0.00,VWS V14.01,2013-10-03 09:29:00,
2013-10-03 04:30:00,71.8,66.4,29.71,SE,124,11.0,14.0,83,0.00,,---,0.00,VWS V14.01,2013-10-03 09:30:00,
2013-10-03 04:32:00,71.6,66.5,29.71,SE,124,6.0,11.0,84,0.00,,---,0.00,VWS V14.01,2013-10-03 09:32:00,
2013-10-03 04:33:00,71.6,66.5,29.71,SE,133,6.0,11.0,84,0.00,,---,0.00,VWS V14.01,2013-10-03 09:33:00,
2013-10-03 04:34:00,71.5,66.4,29.71,SE,133,6.0,11.0,84,0.00,,---,0.00,VWS V14.01,2013-10-03 09:34:00,
2013-10-03 04:35:00,71.5,66.4,29.71,SE,132,6.0,11.0,84,0.00,,---,0.00,VWS V14.01,2013-10-03 09:35:00,
2013-10-03 04:37:00,71.3,66.2,29.71,SE,133,6.0,11.0,84,0.00,,---,0.00,VWS V14.01,2013-10-03 09:37:00,
2013-10-03 04:38:00,71.3,66.6,29.71,SE,127,6.0,11.0,85,0.00,,---,0.00,VWS V14.01,2013-10-03 09:38:00,
2013-10-03 04:39:00,71.3,66.6,29.71,SE,127,5.0,11.0,85,0.00,,---,0.00,VWS V14.01,2013-10-03 09:39:00,
2013-10-03 04:40:00,71.3,66.6,29.71,SE,127,5.0,11.0,85,0.00,,---,0.00,VWS V14.01,2013-10-03 09:40:00,
2013-10-03 04:42:00,71.1,66.4,29.71,SE,127,4.0,7.0,85,0.00,,---,0.00,VWS V14.01,2013-10-03 09:42:00,
2013-10-03 04:43:00,71.1,66.4,29.71,SE,127,4.0,7.0,85,0.00,,---,0.00,VWS V14.01,2013-10-03 09:43:00,
2013-10-03 04:44:00,71.1,66.4,29.71,SE,127,4.0,7.0,85,0.00,,---,0.00,VWS V14.01,2013-10-03 09:44:00,
2013-10-03 04:45:00,71.1,66.4,29.72,ESE,123,3.0,9.0,85,0.00,,---,0.00,VWS V14.01,2013-10-03 09:45:00,
2013-10-03 04:47:00,71.1,66.7,29.72,ESE,122,5.0,9.0,86,0.00,,---,0.00,VWS V14.01,2013-10-03 09:47:00,
2013-10-03 04:48:00,71.1,66.7,29.72,ESE,122,8.0,11.0,86,0.00,,---,0.00,VWS V14.01,2013-10-03 09:48:00,
2013-10-03 04:49:00,71.1,66.7,29.72,ESE,115,5.0,11.0,86,0.00,,---,0.00,VWS V14.01,2013-10-03 09:49:00,
2013-10-03 04:50:00,71.1,66.7,29.72,ESE,122,5.0,11.0,86,0.00,,---,0.00,VWS V14.01,2013-10-03 09:50:00,
2013-10-03 04:52:00,71.1,66.7,29.72,SE,126,7.0,10.0,86,0.00,,---,0.00,VWS V14.01,2013-10-03 09:52:00,
2013-10-03 04:53:00,71.1,66.7,29.72,SE,126,6.0,10.0,86,0.00,,---,0.00,VWS V14.01,2013-10-03 09:53:00,
2013-10-03 04:54:00,71.1,66.7,29.72,SE,126,5.0,10.0,86,0.00,,---,0.00,VWS V14.01,2013-10-03 09:54:00,
2013-10-03 04:55:00,71.1,66.7,29.72,ESE,123,4.0,10.0,86,0.00,,---,0.00,VWS V14.01,2013-10-03 09:55:00,
2013-10-03 04:56:00,71.1,66.7,29.72,ESE,123,5.0,10.0,86,0.00,,---,0.00,VWS V14.01,2013-10-03 09:56:00,
2013-10-03 04:58:00,70.9,66.5,29.72,SE,124,5.0,10.0,86,0.00,,---,0.00,VWS V14.01,2013-10-03 09:58:00,
2013-10-03 04:59:00,70.9,66.5,29.70,SE,131,5.0,10.0,86,0.00,,---,0.00,VWS V14.01,2013-10-03 09:59:00,
2013-10-03 05:00:00,70.9,66.5,29.70,SE,131,4.0,4.0,86,0.00,,---,0.00,VWS V14.01,2013-10-03 10:00:00,
2013-10-03 05:01:00,70.9,66.5,29.70,SE,132,7.0,9.0,86,0.00,,---,0.00,VWS V14.01,2013-10-03 10:01:00,
2013-10-03 05:03:00,71.1,67.0,29.70,SE,138,7.0,10.0,87,0.00,,---,0.00,VWS V14.01,2013-10-03 10:03:00,
2013-10-03 05:04:00,71.1,67.0,29.70,SE,134,7.0,11.0,87,0.00,,---,0.00,VWS V14.01,2013-10-03 10:04:00,
2013-10-03 05:05:00,71.1,67.0,29.70,SE,145,7.0,11.0,87,0.00,,---,0.00,VWS V14.01,2013-10-03 10:05:00,
2013-10-03 05:06:00,71.1,67.0,29.70,SE,145,10.0,11.0,87,0.00,,---,0.00,VWS V14.01,2013-10-03 10:06:00,
2013-10-03 05:08:00,71.5,67.1,29.70,SE,132,8.0,14.0,86,0.00,,---,0.00,VWS V14.01,2013-10-03 10:08:00,
2013-10-03 05:09:00,71.5,67.1,29.70,SE,130,9.0,14.0,86,0.00,,---,0.00,VWS V14.01,2013-10-03 10:09:00,
2013-10-03 05:10:00,71.5,67.1,29.70,SE,124,11.0,11.0,86,0.00,,---,0.00,VWS V14.01,2013-10-03 10:10:00,
2013-10-03 05:11:00,71.5,67.1,29.70,SE,128,10.0,12.0,86,0.00,,---,0.00,VWS V14.01,2013-10-03 10:11:00,
2013-10-03 05:13:00,71.5,67.1,29.70,SE,132,10.0,12.0,86,0.00,,---,0.00,VWS V14.01,2013-10-03 10:13:00,
2013-10-03 05:15:00,71.5,67.1,29.70,SE,128,11.0,12.0,86,0.00,,---,0.00,VWS V14.01,2013-10-03 10:15:00,
2013-10-03 05:16:00,71.5,67.1,29.70,ESE,123,12.0,12.0,86,0.00,,---,0.00,VWS V14.01,2013-10-03 10:16:00,
2013-10-03 05:18:00,71.5,67.1,29.70,SE,146,8.0,14.0,86,0.00,,---,0.00,VWS V14.01,2013-10-03 10:18:00,
2013-10-03 05:20:00,71.6,67.2,29.70,SE,137,12.0,14.0,86,0.00,,---,0.00,VWS V14.01,2013-10-03 10:20:00,
2013-10-03 05:21:00,71.6,67.2,29.70,SSE,154,4.0,12.0,86,0.00,,---,0.00,VWS V14.01,2013-10-03 10:21:00,
2013-10-03 05:23:00,71.6,67.2,29.70,SE,136,7.0,16.0,86,0.00,,---,0.00,VWS V14.01,2013-10-03 10:23:00,
2013-10-03 05:25:00,71.6,66.9,29.70,SSE,149,8.0,16.0,85,0.00,,---,0.00,VWS V14.01,2013-10-03 10:25:00,
2013-10-03 05:26:00,71.6,66.9,29.70,SSE,149,10.0,16.0,85,0.00,,---,0.00,VWS V14.01,2013-10-03 10:26:00,
2013-10-03 05:28:00,71.6,66.9,29.70,SSE,151,4.0,16.0,85,0.00,,---,0.00,VWS V14.01,2013-10-03 10:28:00,
2013-10-03 05:29:00,71.6,66.9,29.70,SSE,153,3.0,16.0,85,0.00,,---,0.00,VWS V14.01,2013-10-03 10:29:00,
2013-10-03 05:30:00,71.6,66.9,29.70,SSE,151,4.0,16.0,85,0.00,,---,0.00,VWS V14.01,2013-10-03 10:30:00,
2013-10-03 05:31:00,71.6,66.9,29.70,SSE,153,4.0,9.0,85,0.00,,---,0.00,VWS V14.01,2013-10-03 10:31:00,
2013-10-03 05:33:00,71.6,67.2,29.70,SSE,150,4.0,10.0,86,0.00,,---,0.00,VWS V14.01,2013-10-03 10:33:00,
2013-10-03 05:34:00,71.5,67.1,29.70,SSE,155,6.0,12.0,86,0.00,,---,0.00,VWS V14.01,2013-10-03 10:34:00,
2013-10-03 05:35:00,71.5,67.1,29.70,SSE,151,3.0,12.0,86,0.00,,---,0.00,VWS V14.01,2013-10-03 10:35:00,
2013-10-03 05:36:00,71.5,67.1,29.70,SSE,147,7.0,12.0,86,0.00,,---,0.00,VWS V14.01,2013-10-03 10:36:00,
2013-10-03 05:38:00,71.5,67.1,29.70,SE,146,6.0,12.0,86,0.00,,---,0.00,VWS V14.01,2013-10-03 10:38:00,
2013-10-03 05:39:00,71.5,67.1,29.70,SSE,151,6.0,12.0,86,0.00,,---,0.00,VWS V14.01,2013-10-03 10:39:00,
2013-10-03 05:40:00,71.5,67.1,29.70,SE,143,11.0,12.0,86,0.00,,---,0.00,VWS V14.01,2013-10-03 10:40:00,
2013-10-03 05:41:00,71.5,67.1,29.70,SSE,155,4.0,12.0,86,0.00,,---,0.00,VWS V14.01,2013-10-03 10:41:00,
2013-10-03 05:43:00,71.5,67.1,29.70,SE,133,11.0,13.0,86,0.00,,---,0.00,VWS V14.01,2013-10-03 10:43:00,
2013-10-03 05:44:00,71.5,67.1,29.70,SE,142,9.0,13.0,86,0.00,,---,0.00,VWS V14.01,2013-10-03 10:44:00,
2013-10-03 05:45:00,71.5,67.1,29.70,SE,144,8.0,13.0,86,0.00,,---,0.00,VWS V14.01,2013-10-03 10:45:00,
2013-10-03 05:46:00,71.5,67.1,29.70,SSE,150,11.0,13.0,86,0.00,,---,0.00,VWS V14.01,2013-10-03 10:46:00,
2013-10-03 05:48:00,71.6,67.2,29.70,SSE,147,10.0,15.0,86,0.00,,---,0.00,VWS V14.01,2013-10-03 10:48:00,
2013-10-03 05:49:00,71.6,67.2,29.70,SSE,150,5.0,15.0,86,0.00,,---,0.00,VWS V14.01,2013-10-03 10:49:00,
2013-10-03 05:50:00,71.6,67.2,29.70,SSE,153,13.0,14.0,86,0.00,,---,0.00,VWS V14.01,2013-10-03 10:50:00,
2013-10-03 05:51:00,71.6,67.2,29.70,SE,132,12.0,15.0,86,0.00,,---,0.00,VWS V14.01,2013-10-03 10:51:00,
2013-10-03 05:53:00,71.6,67.2,29.70,SE,145,7.0,16.0,86,0.00,,---,0.00,VWS V14.01,2013-10-03 10:53:00,
2013-10-03 05:54:00,71.6,67.2,29.70,SE,126,13.0,16.0,86,0.00,,---,0.00,VWS V14.01,2013-10-03 10:54:00,
2013-10-03 05:55:00,71.6,67.2,29.70,SE,138,11.0,16.0,86,0.00,,---,0.00,VWS V14.01,2013-10-03 10:55:00,
2013-10-03 05:56:00,71.6,67.2,29.70,SSE,150,7.0,16.0,86,0.00,,---,0.00,VWS V14.01,2013-10-03 10:56:00,
2013-10-03 05:58:00,71.6,66.9,29.70,SSE,153,7.0,16.0,85,0.00,,---,0.00,VWS V14.01,2013-10-03 10:58:00,
2013-10-03 05:59:00,71.6,66.9,29.70,SE,141,4.0,16.0,85,0.00,,---,0.00,VWS V14.01,2013-10-03 10:59:00,
2013-10-03 06:00:00,71.6,66.9,29.70,SSE,151,10.0,13.0,85,0.00,,---,0.00,VWS V14.01,2013-10-03 11:00:00,
2013-10-03 06:01:00,71.6,66.9,29.70,SSE,152,6.0,17.0,85,0.00,,---,0.00,VWS V14.01,2013-10-03 11:01:00,
2013-10-03 06:03:00,71.6,66.9,29.70,SE,138,4.0,17.0,85,0.00,,---,0.00,VWS V14.01,2013-10-03 11:03:00,
2013-10-03 06:04:00,71.8,67.1,29.70,SE,137,4.0,17.0,85,0.00,,---,0.00,VWS V14.01,2013-10-03 11:04:00,
2013-10-03 06:05:00,71.8,67.1,29.70,SSE,153,7.0,17.0,85,0.00,,---,0.00,VWS V14.01,2013-10-03 11:05:00,
2013-10-03 06:06:00,71.8,67.1,29.70,SSE,156,6.0,17.0,85,0.00,,---,0.00,VWS V14.01,2013-10-03 11:06:00,
2013-10-03 06:07:00,71.8,67.1,29.70,SE,134,8.0,17.0,85,0.00,,---,0.00,VWS V14.01,2013-10-03 11:07:00,
2013-10-03 06:08:00,71.8,67.1,29.70,SSE,148,5.0,17.0,85,0.00,,---,0.00,VWS V14.01,2013-10-03 11:08:00,
2013-10-03 06:09:00,71.8,67.1,29.70,SE,146,6.0,17.0,85,0.00,,---,0.00,VWS V14.01,2013-10-03 11:09:00,
2013-10-03 06:10:00,71.6,66.9,29.70,SSE,147,10.0,10.0,85,0.00,,---,0.00,VWS V14.01,2013-10-03 11:10:00,
2013-10-03 06:11:00,71.6,66.9,29.70,SE,145,7.0,11.0,85,0.00,,---,0.00,VWS V14.01,2013-10-03 11:11:00,
2013-10-03 06:12:00,71.6,66.9,29.70,SSE,150,3.0,13.0,85,0.00,,---,0.00,VWS V14.01,2013-10-03 11:12:00,
2013-10-03 06:13:00,71.6,66.9,29.70,SSE,154,10.0,13.0,85,0.00,,---,0.00,VWS V14.01,2013-10-03 11:13:00,
2013-10-03 06:15:00,71.6,67.2,29.70,SSE,153,5.0,13.0,86,0.00,,---,0.00,VWS V14.01,2013-10-03 11:15:00,
2013-10-03 06:16:00,71.6,67.2,29.70,SSE,147,8.0,13.0,86,0.00,,---,0.00,VWS V14.01,2013-10-03 11:16:00,
2013-10-03 06:17:00,71.6,67.2,29.70,SSE,148,7.0,13.0,86,0.00,,---,0.00,VWS V14.01,2013-10-03 11:17:00,
2013-10-03 06:18:00,71.6,67.2,29.70,SSE,147,2.0,13.0,86,0.00,,---,0.00,VWS V14.01,2013-10-03 11:18:00,
2013-10-03 06:20:00,71.5,67.1,29.70,SSE,154,7.0,13.0,86,0.00,,---,0.00,VWS V14.01,2013-10-03 11:20:00,
2013-10-03 06:21:00,71.5,67.1,29.70,SSE,149,5.0,12.0,86,0.00,,---,0.00,VWS V14.01,2013-10-03 11:21:00,
2013-10-03 06:22:00,71.5,67.1,29.70,SSE,153,11.0,12.0,86,0.00,,---,0.00,VWS V14.01,2013-10-03 11:22:00,
2013-10-03 06:23:00,71.5,67.1,29.70,SSE,152,3.0,12.0,86,0.00,,---,0.00,VWS V14.01,2013-10-03 11:23:00,
2013-10-03 06:25:00,71.5,67.1,29.70,SSE,148,2.0,12.0,86,0.00,,---,0.00,VWS V14.01,2013-10-03 11:25:00,
2013-10-03 06:26:00,71.5,67.1,29.70,SSE,150,4.0,12.0,86,0.00,,---,0.00,VWS V14.01,2013-10-03 11:26:00,
2013-10-03 06:27:00,71.5,67.1,29.70,SSE,150,1.0,12.0,86,0.00,,---,0.00,VWS V14.01,2013-10-03 11:27:00,
2013-10-03 06:28:00,71.5,67.1,29.70,SSE,155,3.0,12.0,86,0.00,,---,0.00,VWS V14.01,2013-10-03 11:28:00,
2013-10-03 06:30:00,71.5,67.1,29.70,SE,140,5.0,12.0,86,0.00,,---,0.00,VWS V14.01,2013-10-03 11:30:00,
2013-10-03 06:31:00,71.5,67.4,29.70,SSE,150,0.0,13.0,87,0.00,,---,0.00,VWS V14.01,2013-10-03 11:31:00,
2013-10-03 06:32:00,71.5,67.4,29.70,SSE,153,5.0,13.0,87,0.00,,---,0.00,VWS V14.01,2013-10-03 11:32:00,
2013-10-03 06:33:00,71.5,67.4,29.70,SE,145,1.0,13.0,87,0.00,,---,0.00,VWS V14.01,2013-10-03 11:33:00,
2013-10-03 06:35:00,71.5,67.4,29.70,SE,139,7.0,13.0,87,0.00,,---,0.00,VWS V14.01,2013-10-03 11:35:00,
2013-10-03 06:36:00,71.3,67.2,29.70,SSE,150,10.0,13.0,87,0.00,,---,0.00,VWS V14.01,2013-10-03 11:36:00,
2013-10-03 06:37:00,71.3,67.2,29.70,SSE,151,2.0,13.0,87,0.00,,---,0.00,VWS V14.01,2013-10-03 11:37:00,
2013-10-03 06:38:00,71.5,67.4,29.70,SSE,150,2.0,13.0,87,0.00,,---,0.00,VWS V14.01,2013-10-03 11:38:00,
2013-10-03 06:40:00,71.5,67.4,29.70,SE,139,0.0,13.0,87,0.00,,---,0.00,VWS V14.01,2013-10-03 11:40:00,
2013-10-03 06:41:00,71.5,67.4,29.70,SE,139,0.0,0.0,87,0.00,,---,0.00,VWS V14.01,2013-10-03 11:41:00,
2013-10-03 06:42:00,71.5,67.4,29.70,SE,139,0.0,0.0,87,0.00,,---,0.00,VWS V14.01,2013-10-03 11:42:00,
2013-10-03 06:43:00,71.5,67.4,29.70,SE,139,0.0,0.0,87,0.00,,---,0.00,VWS V14.01,2013-10-03 11:43:00,
2013-10-03 06:45:00,71.5,67.4,29.73,SE,138,0.0,0.0,87,0.00,,---,0.00,VWS V14.01,2013-10-03 11:45:00,
2013-10-03 06:46:00,71.5,67.4,29.73,SE,138,0.0,0.0,87,0.00,,---,0.00,VWS V14.01,2013-10-03 11:46:00,
2013-10-03 06:47:00,71.5,67.4,29.73,SE,138,0.0,0.0,87,0.00,,---,0.00,VWS V14.01,2013-10-03 11:47:00,
2013-10-03 06:48:00,71.5,67.4,29.73,SE,138,0.0,0.0,87,0.00,,---,0.00,VWS V14.01,2013-10-03 11:48:00,
2013-10-03 06:49:00,71.5,67.4,29.73,SE,138,0.0,0.0,87,0.00,,---,0.00,VWS V14.01,2013-10-03 11:49:00,
2013-10-03 06:50:00,71.5,67.4,29.73,SE,138,0.0,0.0,87,0.00,,---,0.00,VWS V14.01,2013-10-03 11:50:00,
2013-10-03 06:52:00,71.5,67.4,29.73,SE,138,0.0,0.0,87,0.00,,---,0.00,VWS V14.01,2013-10-03 11:52:00,
2013-10-03 06:53:00,71.5,67.4,29.73,NE,44,3.0,5.0,87,0.00,,---,0.00,VWS V14.01,2013-10-03 11:53:00,
2013-10-03 06:54:00,71.5,67.4,29.73,NE,43,0.0,5.0,87,0.00,,---,0.00,VWS V14.01,2013-10-03 11:54:00,
2013-10-03 06:55:00,71.3,66.9,29.73,North,355,1.0,10.0,86,0.00,,---,0.00,VWS V14.01,2013-10-03 11:55:00,
2013-10-03 06:56:00,71.3,66.9,29.73,NNE,28,1.0,10.0,86,0.00,,---,0.00,VWS V14.01,2013-10-03 11:56:00,
2013-10-03 06:57:00,70.9,65.8,29.73,North,5,4.0,12.0,84,0.00,,---,0.00,VWS V14.01,2013-10-03 11:57:00,
2013-10-03 06:58:00,70.4,65.3,29.73,NE,44,1.0,13.0,84,0.00,,---,0.00,VWS V14.01,2013-10-03 11:58:00,
2013-10-03 06:59:00,70.3,65.2,29.73,ENE,57,4.0,13.0,84,0.00,,---,0.00,VWS V14.01,2013-10-03 11:59:00,
2013-10-03 07:01:00,69.9,64.8,29.74,NNW,336,1.0,9.0,84,0.00,,---,0.00,VWS V14.01,2013-10-03 12:01:00,
2013-10-03 07:02:00,69.6,64.6,29.74,NE,46,6.0,12.0,84,0.00,,---,0.00,VWS V14.01,2013-10-03 12:02:00,
2013-10-03 07:03:00,69.4,64.4,29.74,NNE,22,9.0,12.0,84,0.00,,---,0.00,VWS V14.01,2013-10-03 12:03:00,
2013-10-03 07:04:00,69.3,64.3,29.74,NNE,24,7.0,12.0,84,0.00,,---,0.00,VWS V14.01,2013-10-03 12:04:00,
2013-10-03 07:06:00,68.9,63.9,29.74,North,360,2.0,13.0,84,0.00,,---,0.00,VWS V14.01,2013-10-03 12:06:00,
2013-10-03 07:07:00,68.6,63.6,29.74,NE,44,6.0,13.0,84,0.00,,---,0.00,VWS V14.01,2013-10-03 12:07:00,
2013-10-03 07:08:00,68.3,62.9,29.74,NE,40,5.0,13.0,83,0.00,,---,0.00,VWS V14.01,2013-10-03 12:08:00,
2013-10-03 07:09:00,68.1,62.8,29.74,ENE,71,8.0,15.0,83,0.00,,---,0.00,VWS V14.01,2013-10-03 12:09:00,
2013-10-03 07:11:00,67.6,61.9,29.74,North,10,4.0,11.0,82,0.00,,---,0.00,VWS V14.01,2013-10-03 12:11:00,
2013-10-03 07:12:00,66.9,60.9,29.74,NNE,15,6.0,14.0,81,0.00,,---,0.00,VWS V14.01,2013-10-03 12:12:00,
2013-10-03 07:13:00,66.9,60.9,29.74,NNE,30,5.0,14.0,81,0.00,,---,0.00,VWS V14.01,2013-10-03 12:13:00,
2013-10-03 07:14:00,66.6,60.6,29.74,NE,34,3.0,14.0,81,0.00,,---,0.00,VWS V14.01,2013-10-03 12:14:00,
2013-10-03 07:16:00,66.0,60.3,29.76,NNE,17,5.0,14.0,82,0.00,,---,0.00,VWS V14.01,2013-10-03 12:16:00,
2013-10-03 07:17:00,65.8,60.2,29.76,NNE,15,11.0,16.0,82,0.00,,---,0.00,VWS V14.01,2013-10-03 12:17:00,
2013-10-03 07:18:00,65.6,60.0,29.76,NE,53,11.0,22.0,82,0.00,,---,0.00,VWS V14.01,2013-10-03 12:18:00,
2013-10-03 07:19:00,65.5,59.9,29.76,NNE,17,10.0,22.0,82,0.00,,---,0.00,VWS V14.01,2013-10-03 12:19:00,
2013-10-03 07:21:00,65.2,59.6,29.76,NE,53,6.0,18.0,82,0.00,,---,0.00,VWS V14.01,2013-10-03 12:21:00,
2013-10-03 07:22:00,65.0,59.4,29.76,NE,47,9.0,21.0,82,0.00,,---,0.00,VWS V14.01,2013-10-03 12:22:00,
2013-10-03 07:23:00,65.0,59.4,29.76,NE,40,11.0,21.0,82,0.00,,---,0.00,VWS V14.01,2013-10-03 12:23:00,
2013-10-03 07:24:00,65.0,59.4,29.76,NNE,25,6.0,21.0,82,0.00,,---,0.00,VWS V14.01,2013-10-03 12:24:00,
2013-10-03 07:25:00,64.8,59.2,29.76,ENE,57,11.0,21.0,82,0.00,,---,0.00,VWS V14.01,2013-10-03 12:25:00,
2013-10-03 07:26:00,64.8,59.2,29.76,NE,54,10.0,21.0,82,0.00,,---,0.00,VWS V14.01,2013-10-03 12:26:00,
2013-10-03 07:27:00,64.7,59.1,29.76,NE,55,14.0,21.0,82,0.00,,---,0.00,VWS V14.01,2013-10-03 12:27:00,
2013-10-03 07:28:00,64.7,59.1,29.76,NE,52,16.0,21.0,82,0.00,,---,0.00,VWS V14.01,2013-10-03 12:28:00,
2013-10-03 07:29:00,64.7,59.1,29.76,NNE,18,10.0,21.0,82,0.00,,---,0.00,VWS V14.01,2013-10-03 12:29:00,
2013-10-03 07:30:00,64.7,59.1,29.76,NE,53,9.0,21.0,82,0.00,,---,0.00,VWS V14.01,2013-10-03 12:30:00,
2013-10-03 07:31:00,64.7,59.1,29.76,NE,50,10.0,15.0,82,0.00,,---,0.00,VWS V14.01,2013-10-03 12:31:00,
2013-10-03 07:33:00,64.5,58.9,29.76,NE,55,11.0,18.0,82,0.00,,---,0.00,VWS V14.01,2013-10-03 12:33:00,
2013-10-03 07:34:00,64.5,58.9,29.76,NNE,27,7.0,18.0,82,0.00,,---,0.00,VWS V14.01,2013-10-03 12:34:00,
2013-10-03 07:35:00,64.5,58.9,29.76,NE,44,8.0,18.0,82,0.00,,---,0.00,VWS V14.01,2013-10-03 12:35:00,
2013-10-03 07:36:00,64.5,58.9,29.76,NE,50,16.0,18.0,82,0.00,,---,0.00,VWS V14.01,2013-10-03 12:36:00,
2013-10-03 07:37:00,64.7,59.1,29.76,NE,39,13.0,18.0,82,0.00,,---,0.00,VWS V14.01,2013-10-03 12:37:00,
2013-10-03 07:38:00,64.7,59.1,29.76,NE,43,6.0,18.0,82,0.00,,---,0.00,VWS V14.01,2013-10-03 12:38:00,
2013-10-03 07:39:00,64.7,59.1,29.76,ENE,59,14.0,18.0,82,0.00,,---,0.00,VWS V14.01,2013-10-03 12:39:00,
2013-10-03 07:40:00,64.7,59.1,29.76,NE,55,4.0,12.0,82,0.00,,---,0.00,VWS V14.01,2013-10-03 12:40:00,
2013-10-03 07:41:00,64.7,59.1,29.76,NE,54,10.0,13.0,82,0.00,,---,0.00,VWS V14.01,2013-10-03 12:41:00,
2013-10-03 07:42:00,64.7,59.1,29.76,ENE,57,11.0,13.0,82,0.00,,---,0.00,VWS V14.01,2013-10-03 12:42:00,
2013-10-03 07:43:00,64.7,59.1,29.76,NE,51,9.0,13.0,82,0.00,,---,0.00,VWS V14.01,2013-10-03 12:43:00,
2013-10-03 07:44:00,64.7,59.1,29.76,ENE,57,7.0,13.0,82,0.00,,---,0.00,VWS V14.01,2013-10-03 12:44:00,
2013-10-03 07:45:00,64.7,59.1,29.76,NE,52,11.0,14.0,82,0.00,,---,0.00,VWS V14.01,2013-10-03 12:45:00,
2013-10-03 07:46:00,64.7,59.4,29.76,NE,50,6.0,14.0,83,0.00,,---,0.00,VWS V14.01,2013-10-03 12:46:00,
2013-10-03 07:47:00,64.8,59.5,29.76,NE,42,5.0,14.0,83,0.00,,---,0.00,VWS V14.01,2013-10-03 12:47:00,
2013-10-03 07:48:00,64.8,59.5,29.76,NE,52,16.0,16.0,83,0.00,,---,0.00,VWS V14.01,2013-10-03 12:48:00,
2013-10-03 07:49:00,64.8,59.5,29.76,NE,45,13.0,16.0,83,0.00,,---,0.00,VWS V14.01,2013-10-03 12:49:00,
2013-10-03 07:50:00,64.8,59.5,29.76,NE,44,10.0,11.0,83,0.00,,---,0.00,VWS V14.01,2013-10-03 12:50:00,
2013-10-03 07:51:00,64.7,59.4,29.76,NE,51,8.0,15.0,83,0.00,,---,0.00,VWS V14.01,2013-10-03 12:51:00,
2013-10-03 07:52:00,64.7,59.4,29.76,NE,46,12.0,15.0,83,0.00,,---,0.00,VWS V14.01,2013-10-03 12:52:00,
2013-10-03 07:53:00,64.7,59.4,29.76,NE,41,12.0,16.0,83,0.00,,---,0.00,VWS V14.01,2013-10-03 12:53:00,
2013-10-03 07:54:00,64.7,59.8,29.76,NE,38,13.0,17.0,84,0.00,,---,0.00,VWS V14.01,2013-10-03 12:54:00,
2013-10-03 07:55:00,64.7,59.8,29.76,NE,46,14.0,17.0,84,0.00,,---,0.00,VWS V14.01,2013-10-03 12:55:00,
2013-10-03 07:56:00,64.7,59.8,29.76,ENE,59,12.0,17.0,84,0.00,,---,0.00,VWS V14.01,2013-10-03 12:56:00,
2013-10-03 07:57:00,64.7,59.8,29.76,NE,55,11.0,17.0,84,0.00,,---,0.00,VWS V14.01,2013-10-03 12:57:00,
2013-10-03 07:58:00,64.7,59.8,29.76,NE,53,17.0,19.0,84,0.00,,---,0.00,VWS V14.01,2013-10-03 12:58:00,
2013-10-03 07:59:00,64.7,59.8,29.76,NE,46,17.0,20.0,84,0.00,,---,0.00,VWS V14.01,2013-10-03 12:59:00,
2013-10-03 08:00:00,64.7,59.8,29.76,ENE,66,14.0,17.0,84,0.00,,---,0.00,VWS V14.01,2013-10-03 13:00:00,
2013-10-03 08:02:00,64.7,59.4,29.76,NE,49,19.0,19.0,83,0.00,,---,0.00,VWS V14.01,2013-10-03 13:02:00,
2013-10-03 08:03:00,64.7,59.4,29.76,NE,46,7.0,19.0,83,0.00,,---,0.00,VWS V14.01,2013-10-03 13:03:00,
2013-10-03 08:04:00,64.7,59.4,29.76,NE,55,11.0,19.0,83,0.00,,---,0.00,VWS V14.01,2013-10-03 13:04:00,
2013-10-03 08:05:00,64.7,59.4,29.76,NE,52,16.0,19.0,83,0.00,,---,0.00,VWS V14.01,2013-10-03 13:05:00,
2013-10-03 08:07:00,64.7,59.8,29.76,NE,44,15.0,19.0,84,0.00,,---,0.00,VWS V14.01,2013-10-03 13:07:00,
2013-10-03 08:08:00,64.5,59.2,29.76,NNE,13,9.0,19.0,83,0.00,,---,0.00,VWS V14.01,2013-10-03 13:08:00,
2013-10-03 08:09:00,64.5,59.6,29.76,NE,40,11.0,19.0,84,0.00,,---,0.00,VWS V14.01,2013-10-03 13:09:00,
2013-10-03 08:11:00,64.5,59.6,29.76,NE,46,15.0,16.0,84,0.00,,---,0.00,VWS V14.01,2013-10-03 13:11:00,
2013-10-03 08:12:00,64.5,59.6,29.76,NE,53,6.0,16.0,84,0.00,,---,0.00,VWS V14.01,2013-10-03 13:12:00,
2013-10-03 08:13:00,64.5,59.6,29.76,NE,50,13.0,16.0,84,0.00,,---,0.00,VWS V14.01,2013-10-03 13:13:00,
2013-10-03 08:14:00,64.5,59.6,29.76,NE,45,13.0,16.0,84,0.00,,---,0.00,VWS V14.01,2013-10-03 13:14:00,
2013-10-03 08:16:00,64.5,59.6,29.76,NE,55,9.0,16.0,84,0.00,,---,0.00,VWS V14.01,2013-10-03 13:16:00,
2013-10-03 08:17:00,64.5,59.6,29.76,NE,55,17.0,17.0,84,0.00,,---,0.00,VWS V14.01,2013-10-03 13:17:00,
2013-10-03 08:18:00,64.5,59.6,29.76,NE,47,6.0,17.0,84,0.00,,---,0.00,VWS V14.01,2013-10-03 13:18:00,
2013-10-03 08:19:00,64.5,59.6,29.76,NE,39,12.0,17.0,84,0.00,,---,0.00,VWS V14.01,2013-10-03 13:19:00,
2013-10-03 08:21:00,64.5,59.9,29.76,NE,46,10.0,15.0,85,0.00,,---,0.00,VWS V14.01,2013-10-03 13:21:00,
2013-10-03 08:22:00,64.5,59.9,29.76,NE,42,13.0,15.0,85,0.00,,---,0.00,VWS V14.01,2013-10-03 13:22:00,
2013-10-03 08:23:00,64.5,59.9,29.76,NE,51,12.0,15.0,85,0.00,,---,0.00,VWS V14.01,2013-10-03 13:23:00,
2013-10-03 08:24:00,64.5,59.9,29.76,NE,49,9.0,15.0,85,0.00,,---,0.00,VWS V14.01,2013-10-03 13:24:00,
2013-10-03 08:26:00,64.5,60.2,29.76,NE,42,15.0,17.0,86,0.00,,---,0.00,VWS V14.01,2013-10-03 13:26:00,
2013-10-03 08:27:00,64.3,60.0,29.76,NE,55,15.0,17.0,86,0.00,,---,0.00,VWS V14.01,2013-10-03 13:27:00,
2013-10-03 08:28:00,64.5,60.2,29.76,NE,48,13.0,17.0,86,0.00,,---,0.00,VWS V14.01,2013-10-03 13:28:00,
2013-10-03 08:29:00,64.5,60.2,29.76,NNE,28,14.0,17.0,86,0.00,,---,0.00,VWS V14.01,2013-10-03 13:29:00,
2013-10-03 08:31:00,64.3,60.3,29.76,NE,51,10.0,14.0,87,0.00,,---,0.00,VWS V14.01,2013-10-03 13:31:00,
2013-10-03 08:32:00,64.3,60.3,29.76,NE,56,15.0,17.0,87,0.00,,---,0.00,VWS V14.01,2013-10-03 13:32:00,
2013-10-03 08:33:00,64.3,60.3,29.76,NE,46,12.0,17.0,87,0.00,,---,0.00,VWS V14.01,2013-10-03 13:33:00,
2013-10-03 08:34:00,64.3,60.3,29.76,NE,51,14.0,17.0,87,0.00,,---,0.00,VWS V14.01,2013-10-03 13:34:00,
2013-10-03 08:36:00,64.3,60.3,29.76,NE,45,14.0,17.0,87,0.00,,---,0.00,VWS V14.01,2013-10-03 13:36:00,
2013-10-03 08:37:00,64.3,60.3,29.76,ENE,63,12.0,17.0,87,0.00,,---,0.00,VWS V14.01,2013-10-03 13:37:00,
2013-10-03 08:38:00,64.3,60.3,29.76,NE,47,15.0,17.0,87,0.00,,---,0.00,VWS V14.01,2013-10-03 13:38:00,
2013-10-03 08:39:00,64.3,60.3,29.76,NE,52,16.0,19.0,87,0.00,,---,0.00,VWS V14.01,2013-10-03 13:39:00,
2013-10-03 08:41:00,64.3,60.3,29.76,NE,40,17.0,17.0,87,0.00,,---,0.00,VWS V14.01,2013-10-03 13:41:00,
2013-10-03 08:42:00,64.3,60.3,29.76,NE,47,15.0,19.0,87,0.00,,---,0.00,VWS V14.01,2013-10-03 13:42:00,
2013-10-03 08:43:00,64.3,60.3,29.76,NE,42,11.0,19.0,87,0.00,,---,0.00,VWS V14.01,2013-10-03 13:43:00,
2013-10-03 08:44:00,64.3,60.3,29.76,NE,50,15.0,19.0,87,0.00,,---,0.00,VWS V14.01,2013-10-03 13:44:00,
2013-10-03 08:46:00,64.2,60.6,29.77,NE,52,13.0,19.0,88,0.00,,---,0.00,VWS V14.01,2013-10-03 13:46:00,
2013-10-03 08:48:00,64.2,60.6,29.77,ENE,59,14.0,19.0,88,0.00,,---,0.00,VWS V14.01,2013-10-03 13:48:00,
2013-10-03 08:49:00,64.2,60.6,29.77,ENE,57,14.0,19.0,88,0.00,,---,0.00,VWS V14.01,2013-10-03 13:49:00,
2013-10-03 08:51:00,64.2,60.6,29.77,NE,51,15.0,20.0,88,0.00,,---,0.00,VWS V14.01,2013-10-03 13:51:00,
2013-10-03 08:53:00,64.2,60.6,29.77,NE,40,10.0,20.0,88,0.00,,---,0.00,VWS V14.01,2013-10-03 13:53:00,
2013-10-03 08:54:00,64.2,60.9,29.77,NE,48,10.0,20.0,89,0.00,,---,0.00,VWS V14.01,2013-10-03 13:54:00,
2013-10-03 08:56:00,64.0,60.7,29.77,NE,48,20.0,20.0,89,0.00,,---,0.00,VWS V14.01,2013-10-03 13:56:00,
2013-10-03 08:58:00,64.0,60.7,29.77,NE,38,14.0,20.0,89,0.00,,---,0.00,VWS V14.01,2013-10-03 13:58:00,
2013-10-03 08:59:00,64.0,60.7,29.77,NE,39,11.0,20.0,89,0.00,,---,0.00,VWS V14.01,2013-10-03 13:59:00,
2013-10-03 09:02:00,63.9,60.9,29.77,NE,40,17.0,20.0,90,0.00,,---,0.00,VWS V14.01,2013-10-03 14:02:00,
2013-10-03 09:03:00,63.9,60.9,29.77,NE,48,12.0,20.0,90,0.00,,---,0.00,VWS V14.01,2013-10-03 14:03:00,
2013-10-03 09:04:00,63.9,60.9,29.77,NNE,30,13.0,22.0,90,0.00,,---,0.00,VWS V14.01,2013-10-03 14:04:00,
2013-10-03 09:07:00,63.9,60.9,29.77,NE,53,18.0,22.0,90,0.00,,---,0.00,VWS V14.01,2013-10-03 14:07:00,
2013-10-03 09:08:00,63.9,61.2,29.77,NE,43,15.0,22.0,91,0.00,,---,0.00,VWS V14.01,2013-10-03 14:08:00,
2013-10-03 09:09:00,63.9,61.2,29.77,NE,44,14.0,22.0,91,0.00,,---,0.00,VWS V14.01,2013-10-03 14:09:00,
2013-10-03 09:12:00,63.9,61.2,29.77,NE,51,13.0,16.0,91,0.00,,---,0.00,VWS V14.01,2013-10-03 14:12:00,
2013-10-03 09:13:00,63.7,61.0,29.77,NE,45,17.0,19.0,91,0.00,,---,0.00,VWS V14.01,2013-10-03 14:13:00,
2013-10-03 09:14:00,63.7,61.0,29.77,NE,53,14.0,20.0,91,0.00,,---,0.00,VWS V14.01,2013-10-03 14:14:00,
2013-10-03 09:15:00,63.7,61.3,29.77,NE,54,15.0,20.0,92,0.00,,---,0.00,VWS V14.01,2013-10-03 14:15:00,
2013-10-03 09:17:00,63.7,61.3,29.77,NE,51,13.0,20.0,92,0.00,,---,0.00,VWS V14.01,2013-10-03 14:17:00,
2013-10-03 09:18:00,63.7,61.3,29.77,NE,54,18.0,20.0,92,0.00,,---,0.00,VWS V14.01,2013-10-03 14:18:00,
2013-10-03 09:19:00,63.7,61.3,29.77,NE,55,15.0,20.0,92,0.00,,---,0.00,VWS V14.01,2013-10-03 14:19:00,
2013-10-03 09:20:00,63.7,61.3,29.77,NE,51,14.0,20.0,92,0.00,,---,0.00,VWS V14.01,2013-10-03 14:20:00,
2013-10-03 09:22:00,63.7,61.6,29.77,NE,38,13.0,18.0,93,0.00,,---,0.00,VWS V14.01,2013-10-03 14:22:00,
2013-10-03 09:23:00,63.7,61.6,29.77,NE,44,17.0,20.0,93,0.00,,---,0.00,VWS V14.01,2013-10-03 14:23:00,
2013-10-03 09:24:00,63.7,61.6,29.77,NE,54,13.0,20.0,93,0.00,,---,0.00,VWS V14.01,2013-10-03 14:24:00,
2013-10-03 09:25:00,63.7,61.6,29.77,ENE,65,16.0,20.0,93,0.00,,---,0.00,VWS V14.01,2013-10-03 14:25:00,
2013-10-03 09:27:00,63.7,61.6,29.77,NE,46,12.0,20.0,93,0.00,,---,0.00,VWS V14.01,2013-10-03 14:27:00,
2013-10-03 09:28:00,63.7,61.6,29.77,NE,53,13.0,20.0,93,0.00,,---,0.00,VWS V14.01,2013-10-03 14:28:00,
2013-10-03 09:29:00,63.7,61.6,29.77,NE,55,14.0,20.0,93,0.00,,---,0.00,VWS V14.01,2013-10-03 14:29:00,
2013-10-03 09:30:00,63.7,61.6,29.77,ENE,57,12.0,20.0,93,0.00,,---,0.00,VWS V14.01,2013-10-03 14:30:00,
2013-10-03 09:32:00,63.5,61.4,29.77,NE,44,13.0,16.0,93,0.00,,---,0.00,VWS V14.01,2013-10-03 14:32:00,
2013-10-03 09:34:00,63.5,61.8,29.77,NE,51,16.0,18.0,94,0.00,,---,0.00,VWS V14.01,2013-10-03 14:34:00,
2013-10-03 09:35:00,63.5,61.8,29.77,ENE,59,10.0,18.0,94,0.00,,---,0.00,VWS V14.01,2013-10-03 14:35:00,
2013-10-03 09:37:00,63.5,61.8,29.77,NE,49,13.0,18.0,94,0.00,,---,0.00,VWS V14.01,2013-10-03 14:37:00,
2013-10-03 09:39:00,63.5,61.8,29.77,NE,47,11.0,18.0,94,0.00,,---,0.00,VWS V14.01,2013-10-03 14:39:00,
2013-10-03 09:40:00,63.5,61.8,29.77,NE,53,5.0,18.0,94,0.00,,---,0.00,VWS V14.01,2013-10-03 14:40:00,
2013-10-03 09:42:00,63.5,61.8,29.77,NE,40,11.0,16.0,94,0.00,,---,0.00,VWS V14.01,2013-10-03 14:42:00,
2013-10-03 09:44:00,63.5,62.0,29.78,NE,34,8.0,16.0,95,0.00,,---,0.00,VWS V14.01,2013-10-03 14:44:00,
2013-10-03 09:45:00,63.5,62.0,29.78,NE,49,3.0,16.0,95,0.00,,---,0.00,VWS V14.01,2013-10-03 14:45:00,
2013-10-03 09:48:00,63.5,62.0,29.78,NE,45,5.0,16.0,95,0.00,,---,0.00,VWS V14.01,2013-10-03 14:48:00,
2013-10-03 09:49:00,63.5,62.0,29.78,NE,39,4.0,16.0,95,0.00,,---,0.00,VWS V14.01,2013-10-03 14:49:00,
2013-10-03 09:50:00,63.5,62.0,29.78,NE,50,6.0,16.0,95,0.00,,---,0.00,VWS V14.01,2013-10-03 14:50:00,
2013-10-03 09:52:00,63.5,62.0,29.78,NE,45,0.0,12.0,95,0.00,,---,0.00,VWS V14.01,2013-10-03 14:52:00,
2013-10-03 09:54:00,63.5,62.0,29.78,NE,51,7.0,12.0,95,0.01,,---,0.01,VWS V14.01,2013-10-03 14:54:00,
2013-10-03 09:55:00,63.5,62.0,29.78,NE,51,9.0,12.0,95,0.01,,---,0.01,VWS V14.01,2013-10-03 14:55:00,
2013-10-03 09:57:00,63.5,62.0,29.78,NE,44,6.0,12.0,95,0.01,,---,0.01,VWS V14.01,2013-10-03 14:57:00,
2013-10-03 09:59:00,63.7,62.2,29.78,ENE,57,7.0,12.0,95,0.01,,---,0.01,VWS V14.01,2013-10-03 14:59:00,
2013-10-03 10:00:00,63.7,62.2,29.78,NE,56,0.0,12.0,95,0.01,,---,0.01,VWS V14.01,2013-10-03 15:00:00,
2013-10-03 10:03:00,63.7,62.2,29.78,ENE,65,11.0,13.0,95,0.01,,---,0.01,VWS V14.01,2013-10-03 15:03:00,
2013-10-03 10:04:00,63.7,62.2,29.78,NE,48,10.0,13.0,95,0.01,,---,0.01,VWS V14.01,2013-10-03 15:04:00,
2013-10-03 10:05:00,63.7,62.2,29.78,NE,52,12.0,13.0,95,0.01,,---,0.01,VWS V14.01,2013-10-03 15:05:00,
2013-10-03 10:08:00,63.7,62.2,29.78,ENE,67,15.0,17.0,95,0.01,,---,0.01,VWS V14.01,2013-10-03 15:08:00,
2013-10-03 10:09:00,63.7,62.2,29.78,NE,47,14.0,17.0,95,0.01,,---,0.01,VWS V14.01,2013-10-03 15:09:00,
2013-10-03 10:10:00,63.7,62.2,29.78,ENE,65,11.0,17.0,95,0.01,,---,0.01,VWS V14.01,2013-10-03 15:10:00,
2013-10-03 10:13:00,63.9,62.7,29.78,ENE,58,14.0,15.0,96,0.01,,---,0.01,VWS V14.01,2013-10-03 15:13:00,
2013-10-03 10:14:00,63.9,62.7,29.77,ENE,66,12.0,15.0,96,0.01,,---,0.01,VWS V14.01,2013-10-03 15:14:00,
2013-10-03 10:15:00,63.9,62.7,29.77,ENE,63,15.0,17.0,96,0.01,,---,0.01,VWS V14.01,2013-10-03 15:15:00,
2013-10-03 10:19:00,64.0,62.8,29.77,ENE,61,15.0,19.0,96,0.01,,---,0.01,VWS V14.01,2013-10-03 15:19:00,
2013-10-03 10:20:00,64.0,62.8,29.77,East,80,11.0,19.0,96,0.01,,---,0.01,VWS V14.01,2013-10-03 15:20:00,
2013-10-03 10:24:00,64.3,63.1,29.77,ENE,66,12.0,17.0,96,0.01,,---,0.01,VWS V14.01,2013-10-03 15:24:00,
2013-10-03 10:25:00,64.3,63.1,29.77,ENE,72,13.0,17.0,96,0.01,,---,0.01,VWS V14.01,2013-10-03 15:25:00,
2013-10-03 10:29:00,64.3,63.1,29.77,ENE,76,12.0,22.0,96,0.01,,---,0.01,VWS V14.01,2013-10-03 15:29:00,
2013-10-03 10:30:00,64.3,63.1,29.76,ENE,59,16.0,22.0,96,0.01,,---,0.01,VWS V14.01,2013-10-03 15:30:00,
2013-10-03 10:34:00,64.7,63.5,29.76,ENE,74,9.0,19.0,96,0.01,,---,0.01,VWS V14.01,2013-10-03 15:34:00,
2013-10-03 10:35:00,64.7,63.5,29.76,East,94,15.0,19.0,96,0.01,,---,0.01,VWS V14.01,2013-10-03 15:35:00,
2013-10-03 10:36:00,64.7,63.5,29.76,East,90,14.0,19.0,96,0.01,,---,0.01,VWS V14.01,2013-10-03 15:36:00,
2013-10-03 10:39:00,64.8,63.6,29.76,ENE,76,14.0,19.0,96,0.01,,---,0.01,VWS V14.01,2013-10-03 15:39:00,
2013-10-03 10:40:00,65.0,63.8,29.76,ENE,62,13.0,19.0,96,0.01,,---,0.01,VWS V14.01,2013-10-03 15:40:00,
2013-10-03 10:41:00,65.0,63.8,29.76,ENE,66,15.0,20.0,96,0.01,,---,0.01,VWS V14.01,2013-10-03 15:41:00,
2013-10-03 10:44:00,65.5,64.3,29.76,ENE,68,16.0,20.0,96,0.01,,---,0.01,VWS V14.01,2013-10-03 15:44:00,
2013-10-03 10:45:00,65.5,64.0,29.75,ENE,64,15.0,20.0,95,0.01,,---,0.01,VWS V14.01,2013-10-03 15:45:00,
2013-10-03 10:46:00,65.5,64.0,29.75,NE,54,14.0,20.0,95,0.01,,---,0.01,VWS V14.01,2013-10-03 15:46:00,
2013-10-03 10:49:00,65.5,64.0,29.75,ENE,75,12.0,21.0,95,0.01,,---,0.01,VWS V14.01,2013-10-03 15:49:00,
2013-10-03 10:50:00,65.5,64.0,29.75,ENE,76,11.0,15.0,95,0.01,,---,0.01,VWS V14.01,2013-10-03 15:50:00,
2013-10-03 10:51:00,65.6,64.1,29.75,ENE,78,14.0,15.0,95,0.01,,---,0.01,VWS V14.01,2013-10-03 15:51:00,
2013-10-03 10:54:00,65.6,63.8,29.75,ENE,78,13.0,21.0,94,0.01,,---,0.01,VWS V14.01,2013-10-03 15:54:00,
2013-10-03 10:55:00,65.8,64.0,29.75,ENE,74,14.0,21.0,94,0.01,,---,0.01,VWS V14.01,2013-10-03 15:55:00,
2013-10-03 10:56:00,66.0,64.2,29.75,ENE,73,15.0,21.0,94,0.01,,---,0.01,VWS V14.01,2013-10-03 15:56:00,
2013-10-03 10:59:00,66.3,64.5,29.75,ENE,78,10.0,21.0,94,0.01,,---,0.01,VWS V14.01,2013-10-03 15:59:00,
2013-10-03 11:00:00,66.3,64.2,29.75,ENE,64,12.0,19.0,93,0.00,,---,0.01,VWS V14.01,2013-10-03 16:00:00,
2013-10-03 11:01:00,66.4,64.3,29.75,ENE,72,13.0,19.0,93,0.00,,---,0.01,VWS V14.01,2013-10-03 16:01:00,
2013-10-03 11:02:00,66.4,64.3,29.75,ENE,76,16.0,19.0,93,0.00,,---,0.01,VWS V14.01,2013-10-03 16:02:00,
2013-10-03 11:04:00,66.6,64.5,29.75,ENE,74,12.0,19.0,93,0.00,,---,0.01,VWS V14.01,2013-10-03 16:04:00,
2013-10-03 11:05:00,66.6,64.2,29.75,East,83,17.0,19.0,92,0.00,,---,0.01,VWS V14.01,2013-10-03 16:05:00,
2013-10-03 11:06:00,66.6,64.2,29.75,ENE,78,11.0,20.0,92,0.00,,---,0.01,VWS V14.01,2013-10-03 16:06:00,
2013-10-03 11:07:00,66.8,64.4,29.75,ENE,74,11.0,20.0,92,0.00,,---,0.01,VWS V14.01,2013-10-03 16:07:00,
2013-10-03 11:09:00,67.1,64.7,29.75,East,87,9.0,20.0,92,0.00,,---,0.01,VWS V14.01,2013-10-03 16:09:00,
2013-10-03 11:10:00,67.3,64.9,29.75,East,94,16.0,16.0,92,0.00,,---,0.01,VWS V14.01,2013-10-03 16:10:00,
2013-10-03 11:11:00,67.3,64.9,29.75,ENE,77,13.0,16.0,92,0.00,,---,0.01,VWS V14.01,2013-10-03 16:11:00,
2013-10-03 11:12:00,67.4,64.7,29.75,East,84,16.0,20.0,91,0.00,,---,0.01,VWS V14.01,2013-10-03 16:12:00,
2013-10-03 11:14:00,67.8,65.1,29.74,ENE,76,13.0,20.0,91,0.00,,---,0.01,VWS V14.01,2013-10-03 16:14:00,
2013-10-03 11:15:00,67.9,64.9,29.74,East,94,13.0,20.0,90,0.00,,---,0.01,VWS V14.01,2013-10-03 16:15:00,
2013-10-03 11:16:00,68.1,65.4,29.74,ENE,78,12.0,20.0,91,0.00,,---,0.01,VWS V14.01,2013-10-03 16:16:00,
2013-10-03 11:17:00,68.1,65.1,29.74,East,84,16.0,20.0,90,0.00,,---,0.01,VWS V14.01,2013-10-03 16:17:00,
2013-10-03 11:19:00,68.4,65.4,29.74,East,98,12.0,20.0,90,0.00,,---,0.01,VWS V14.01,2013-10-03 16:19:00,
2013-10-03 11:20:00,68.6,65.2,29.74,ENE,76,9.0,11.0,89,0.00,,---,0.01,VWS V14.01,2013-10-03 16:20:00,
2013-10-03 11:21:00,68.6,65.2,29.74,East,100,10.0,11.0,89,0.00,,---,0.01,VWS V14.01,2013-10-03 16:21:00,
2013-10-03 11:23:00,68.9,65.5,29.74,East,90,12.0,13.0,89,0.00,,---,0.01,VWS V14.01,2013-10-03 16:23:00,
2013-10-03 11:24:00,69.1,65.4,29.74,ESE,104,10.0,14.0,88,0.00,,---,0.01,VWS V14.01,2013-10-03 16:24:00,
2013-10-03 11:25:00,69.3,65.6,29.74,East,86,14.0,16.0,88,0.00,,---,0.01,VWS V14.01,2013-10-03 16:25:00,
2013-10-03 11:26:00,69.1,65.1,29.74,East,93,13.0,16.0,87,0.00,,---,0.01,VWS V14.01,2013-10-03 16:26:00,
2013-10-03 11:28:00,69.3,65.3,29.74,East,85,10.0,18.0,87,0.00,,---,0.01,VWS V14.01,2013-10-03 16:28:00,
2013-10-03 11:29:00,69.8,66.1,29.73,East,95,11.0,18.0,88,0.00,,---,0.01,VWS V14.01,2013-10-03 16:29:00,
2013-10-03 11:30:00,69.9,66.2,29.73,East,88,15.0,16.0,88,0.00,,---,0.01,VWS V14.01,2013-10-03 16:30:00,
2013-10-03 11:31:00,69.9,66.2,29.73,East,88,15.0,16.0,88,0.00,,---,0.01,VWS V14.01,2013-10-03 16:31:00,
2013-10-03 11:33:00,70.1,65.7,29.73,East,90,13.0,16.0,86,0.00,,---,0.01,VWS V14.01,2013-10-03 16:33:00,
2013-10-03 11:34:00,70.1,65.7,29.73,East,88,15.0,16.0,86,0.00,,---,0.01,VWS V14.01,2013-10-03 16:34:00,
2013-10-03 11:35:00,70.3,65.6,29.73,East,79,10.0,16.0,85,0.00,,---,0.01,VWS V14.01,2013-10-03 16:35:00,
2013-10-03 11:36:00,70.3,65.9,29.73,East,89,13.0,16.0,86,0.00,,---,0.01,VWS V14.01,2013-10-03 16:36:00,
2013-10-03 11:38:00,70.6,66.9,29.73,East,93,12.0,16.0,88,0.00,,---,0.01,VWS V14.01,2013-10-03 16:38:00,
2013-10-03 11:39:00,70.9,66.2,29.73,East,88,10.0,16.0,85,0.00,,---,0.01,VWS V14.01,2013-10-03 16:39:00,
2013-10-03 11:40:00,71.3,66.6,29.73,East,96,7.0,14.0,85,0.00,,---,0.01,VWS V14.01,2013-10-03 16:40:00,
2013-10-03 11:41:00,71.3,66.6,29.73,East,96,5.0,14.0,85,0.00,,---,0.01,VWS V14.01,2013-10-03 16:41:00,
2013-10-03 11:43:00,71.8,66.4,29.73,East,97,12.0,14.0,83,0.00,,---,0.01,VWS V14.01,2013-10-03 16:43:00,
2013-10-03 11:45:00,72.0,66.6,29.73,ESE,119,13.0,15.0,83,0.00,,---,0.01,VWS V14.01,2013-10-03 16:45:00,
2013-10-03 11:46:00,72.0,66.2,29.73,ESE,123,12.0,15.0,82,0.00,,---,0.01,VWS V14.01,2013-10-03 16:46:00,
2013-10-03 11:48:00,72.3,66.5,29.73,ESE,107,5.0,15.0,82,0.00,,---,0.01,VWS V14.01,2013-10-03 16:48:00,
2013-10-03 11:50:00,72.5,66.7,29.73,ESE,105,10.0,15.0,82,0.00,,---,0.01,VWS V14.01,2013-10-03 16:50:00,
2013-10-03 11:51:00,72.5,66.3,29.73,ESE,117,6.0,12.0,81,0.00,,---,0.01,VWS V14.01,2013-10-03 16:51:00,
2013-10-03 11:54:00,73.0,67.2,29.73,ESE,121,13.0,15.0,82,0.00,,---,0.01,VWS V14.01,2013-10-03 16:54:00,
2013-10-03 11:55:00,73.0,66.5,29.73,East,101,14.0,15.0,80,0.00,,---,0.01,VWS V14.01,2013-10-03 16:55:00,
2013-10-03 11:56:00,73.0,66.8,29.73,ESE,123,18.0,19.0,81,0.00,,---,0.01,VWS V14.01,2013-10-03 16:56:00,
2013-10-03 11:59:00,73.2,67.0,29.73,ESE,105,11.0,19.0,81,0.00,,---,0.01,VWS V14.01,2013-10-03 16:59:00,
2013-10-03 12:00:00,73.5,67.0,29.71,ESE,111,15.0,16.0,80,0.00,,---,0.01,VWS V14.01,2013-10-03 17:00:00,
2013-10-03 12:01:00,73.7,67.2,29.71,ESE,105,11.0,16.0,80,0.00,,---,0.01,VWS V14.01,2013-10-03 17:01:00,
2013-10-03 12:04:00,73.9,67.0,29.71,East,94,11.0,16.0,79,0.00,,---,0.01,VWS V14.01,2013-10-03 17:04:00,
2013-10-03 12:05:00,74.0,67.1,29.71,East,89,12.0,16.0,79,0.00,,---,0.01,VWS V14.01,2013-10-03 17:05:00,
2013-10-03 12:06:00,74.0,66.7,29.71,ESE,107,13.0,16.0,78,0.00,,---,0.01,VWS V14.01,2013-10-03 17:06:00,
2013-10-03 12:09:00,74.0,66.7,29.71,ESE,121,14.0,17.0,78,0.00,,---,0.01,VWS V14.01,2013-10-03 17:09:00,
2013-10-03 12:10:00,74.2,67.3,29.71,ESE,116,6.0,11.0,79,0.00,,---,0.01,VWS V14.01,2013-10-03 17:10:00,
2013-10-03 12:11:00,74.4,67.5,29.71,ESE,107,14.0,14.0,79,0.00,,---,0.01,VWS V14.01,2013-10-03 17:11:00,
2013-10-03 12:14:00,74.2,66.5,29.70,ESE,116,8.0,15.0,77,0.00,,---,0.01,VWS V14.01,2013-10-03 17:14:00,
2013-10-03 12:15:00,74.4,67.1,29.70,ESE,119,10.0,16.0,78,0.00,,---,0.01,VWS V14.01,2013-10-03 17:15:00,
2013-10-03 12:16:00,74.6,67.3,29.70,SE,129,9.0,16.0,78,0.00,,---,0.01,VWS V14.01,2013-10-03 17:16:00,
2013-10-03 12:19:00,74.9,67.2,29.70,ESE,111,10.0,16.0,77,0.00,,---,0.01,VWS V14.01,2013-10-03 17:19:00,
2013-10-03 12:21:00,74.9,66.8,29.70,ESE,113,12.0,13.0,76,0.00,,---,0.01,VWS V14.01,2013-10-03 17:21:00,
2013-10-03 12:25:00,75.3,67.2,29.70,SE,140,6.0,16.0,76,0.00,,---,0.01,VWS V14.01,2013-10-03 17:25:00,
2013-10-03 12:26:00,75.4,67.3,29.70,ESE,115,12.0,16.0,76,0.00,,---,0.01,VWS V14.01,2013-10-03 17:26:00,
2013-10-03 12:30:00,76.0,67.5,29.69,ESE,116,11.0,18.0,75,0.00,,---,0.01,VWS V14.01,2013-10-03 17:30:00,
2013-10-03 12:31:00,76.1,67.6,29.69,SE,128,16.0,18.0,75,0.00,,---,0.01,VWS V14.01,2013-10-03 17:31:00,
2013-10-03 12:32:00,76.1,67.6,29.69,SSE,151,15.0,19.0,75,0.00,,---,0.01,VWS V14.01,2013-10-03 17:32:00,
2013-10-03 12:35:00,76.3,67.8,29.69,SE,130,10.0,19.0,75,0.00,,---,0.01,VWS V14.01,2013-10-03 17:35:00,
2013-10-03 12:36:00,76.5,67.2,29.69,SE,142,9.0,19.0,73,0.00,,---,0.01,VWS V14.01,2013-10-03 17:36:00,
2013-10-03 12:37:00,76.7,67.8,29.69,ESE,117,11.0,19.0,74,0.00,,---,0.01,VWS V14.01,2013-10-03 17:37:00,
2013-10-03 12:40:00,76.5,67.2,29.69,ESE,123,20.0,20.0,73,0.00,,---,0.01,VWS V14.01,2013-10-03 17:40:00,
2013-10-03 12:41:00,76.3,67.0,29.69,SE,135,14.0,19.0,73,0.00,,---,0.01,VWS V14.01,2013-10-03 17:41:00,
2013-10-03 12:42:00,76.3,67.0,29.69,SE,132,14.0,19.0,73,0.00,,---,0.01,VWS V14.01,2013-10-03 17:42:00,
2013-10-03 12:45:00,76.5,67.2,29.69,ESE,116,12.0,19.0,73,0.00,,---,0.01,VWS V14.01,2013-10-03 17:45:00,
2013-10-03 12:46:00,76.7,67.0,29.69,SSE,151,18.0,19.0,72,0.00,,---,0.01,VWS V14.01,2013-10-03 17:46:00,
2013-10-03 12:47:00,76.8,67.1,29.69,SSE,147,20.0,20.0,72,0.00,,---,0.01,VWS V14.01,2013-10-03 17:47:00,
2013-10-03 12:50:00,77.0,66.5,29.69,SSE,150,14.0,20.0,70,0.00,,---,0.01,VWS V14.01,2013-10-03 17:50:00,
2013-10-03 12:51:00,77.2,66.7,29.69,SE,132,14.0,17.0,70,0.00,,---,0.01,VWS V14.01,2013-10-03 17:51:00,
2013-10-03 12:52:00,77.2,66.7,29.69,SSE,148,15.0,18.0,70,0.00,,---,0.01,VWS V14.01,2013-10-03 17:52:00,
2013-10-03 12:55:00,77.4,67.3,29.69,SE,130,13.0,18.0,71,0.00,,---,0.01,VWS V14.01,2013-10-03 17:55:00,
2013-10-03 12:56:00,77.4,67.3,29.69,SE,130,19.0,20.0,71,0.00,,---,0.01,VWS V14.01,2013-10-03 17:56:00,
2013-10-03 12:57:00,77.6,67.5,29.69,SSE,149,14.0,20.0,71,0.00,,---,0.01,VWS V14.01,2013-10-03 17:57:00,
2013-10-03 13:00:00,77.7,67.1,29.68,SE,138,17.0,17.0,70,0.00,,---,0.01,VWS V14.01,2013-10-03 18:00:00,
2013-10-03 13:01:00,77.6,67.1,29.68,SSE,152,16.0,18.0,70,0.00,,---,0.01,VWS V14.01,2013-10-03 18:01:00,
2013-10-03 13:02:00,77.4,66.9,29.68,SE,133,14.0,19.0,70,0.00,,---,0.01,VWS V14.01,2013-10-03 18:02:00,
2013-10-03 13:05:00,77.0,67.3,29.68,SE,125,19.0,19.0,72,0.00,,---,0.01,VWS V14.01,2013-10-03 18:05:00,
2013-10-03 13:06:00,77.2,67.1,29.68,ESE,113,15.0,20.0,71,0.00,,---,0.01,VWS V14.01,2013-10-03 18:06:00,
2013-10-03 13:07:00,77.4,67.3,29.68,SE,128,16.0,20.0,71,0.00,,---,0.01,VWS V14.01,2013-10-03 18:07:00,
2013-10-03 13:10:00,77.9,66.9,29.68,SE,126,17.0,18.0,69,0.00,,---,0.01,VWS V14.01,2013-10-03 18:10:00,
2013-10-03 13:11:00,78.1,67.1,29.68,SE,134,13.0,21.0,69,0.00,,---,0.01,VWS V14.01,2013-10-03 18:11:00,
2013-10-03 13:12:00,78.3,67.3,29.68,SSE,151,12.0,21.0,69,0.00,,---,0.01,VWS V14.01,2013-10-03 18:12:00,
2013-10-03 13:15:00,78.6,67.2,29.67,SE,139,13.0,21.0,68,0.00,,---,0.01,VWS V14.01,2013-10-03 18:15:00,
2013-10-03 13:16:00,78.6,67.2,29.67,SE,128,13.0,21.0,68,0.00,,---,0.01,VWS V14.01,2013-10-03 18:16:00,
2013-10-03 13:17:00,78.6,67.2,29.67,SE,143,9.0,21.0,68,0.00,,---,0.01,VWS V14.01,2013-10-03 18:17:00,
2013-10-03 13:20:00,78.6,67.2,29.67,SE,129,18.0,19.0,68,0.00,,---,0.01,VWS V14.01,2013-10-03 18:20:00,
2013-10-03 13:21:00,78.6,67.2,29.67,SSE,155,17.0,19.0,68,0.00,,---,0.01,VWS V14.01,2013-10-03 18:21:00,
2013-10-03 13:22:00,78.6,67.2,29.67,SE,140,15.0,19.0,68,0.00,,---,0.01,VWS V14.01,2013-10-03 18:22:00,
2013-10-03 13:23:00,78.8,66.9,29.67,SE,132,20.0,20.0,67,0.00,,---,0.01,VWS V14.01,2013-10-03 18:23:00,
2013-10-03 13:26:00,79.0,67.1,29.67,SE,146,19.0,24.0,67,0.00,,---,0.01,VWS V14.01,2013-10-03 18:26:00,
2013-10-03 13:27:00,79.0,66.7,29.67,SE,142,13.0,24.0,66,0.00,,---,0.01,VWS V14.01,2013-10-03 18:27:00,
2013-10-03 13:28:00,79.0,66.7,29.67,SE,145,14.0,24.0,66,0.00,,---,0.01,VWS V14.01,2013-10-03 18:28:00,
2013-10-03 13:31:00,79.2,66.9,29.66,SSE,156,13.0,18.0,66,0.00,,---,0.01,VWS V14.01,2013-10-03 18:31:00,
2013-10-03 13:32:00,79.2,66.9,29.66,SSE,153,5.0,18.0,66,0.00,,---,0.01,VWS V14.01,2013-10-03 18:32:00,
2013-10-03 13:33:00,79.4,67.5,29.66,SE,136,18.0,19.0,67,0.00,,---,0.01,VWS V14.01,2013-10-03 18:33:00,
2013-10-03 13:36:00,79.9,67.1,29.66,SSE,154,17.0,20.0,65,0.00,,---,0.01,VWS V14.01,2013-10-03 18:36:00,
2013-10-03 13:37:00,79.9,67.1,29.66,SSE,157,16.0,20.0,65,0.00,,---,0.01,VWS V14.01,2013-10-03 18:37:00,
2013-10-03 13:38:00,79.9,66.7,29.66,SSE,156,9.0,21.0,64,0.00,,---,0.01,VWS V14.01,2013-10-03 18:38:00,
2013-10-03 13:41:00,79.9,67.1,29.66,SE,138,12.0,19.0,65,0.00,,---,0.01,VWS V14.01,2013-10-03 18:41:00,
2013-10-03 13:42:00,80.1,66.8,29.66,ESE,121,13.0,19.0,64,0.00,,---,0.01,VWS V14.01,2013-10-03 18:42:00,
2013-10-03 13:43:00,80.5,66.8,29.66,SE,140,23.0,23.0,63,0.00,,---,0.01,VWS V14.01,2013-10-03 18:43:00,
2013-10-03 13:46:00,80.3,66.1,29.64,ESE,116,15.0,25.0,62,0.00,,---,0.01,VWS V14.01,2013-10-03 18:46:00,
2013-10-03 13:47:00,80.3,66.1,29.64,ESE,122,18.0,25.0,62,0.00,,---,0.01,VWS V14.01,2013-10-03 18:47:00,
2013-10-03 13:48:00,80.5,65.3,29.64,SSE,157,18.0,27.0,60,0.00,,---,0.01,VWS V14.01,2013-10-03 18:48:00,
2013-10-03 13:51:00,80.5,65.8,29.64,SSE,147,23.0,26.0,61,0.00,,---,0.01,VWS V14.01,2013-10-03 18:51:00,
2013-10-03 13:52:00,80.5,65.3,29.64,SSE,148,15.0,26.0,60,0.00,,---,0.01,VWS V14.01,2013-10-03 18:52:00,
2013-10-03 13:53:00,80.5,65.8,29.64,SSE,150,14.0,26.0,61,0.00,,---,0.01,VWS V14.01,2013-10-03 18:53:00,
2013-10-03 13:56:00,80.7,65.5,29.64,SE,141,21.0,26.0,60,0.00,,---,0.01,VWS V14.01,2013-10-03 18:56:00,
2013-10-03 13:57:00,80.7,65.5,29.64,SE,136,21.0,26.0,60,0.00,,---,0.01,VWS V14.01,2013-10-03 18:57:00,
2013-10-03 13:58:00,80.7,65.5,29.64,SE,131,23.0,26.0,60,0.00,,---,0.01,VWS V14.01,2013-10-03 18:58:00,
2013-10-03 14:01:00,81.2,65.5,29.64,SE,146,21.0,24.0,59,0.00,,---,0.01,VWS V14.01,2013-10-03 19:01:00,
2013-10-03 14:02:00,81.2,65.5,29.64,SSE,159,15.0,24.0,59,0.00,,---,0.01,VWS V14.01,2013-10-03 19:02:00,
2013-10-03 14:03:00,81.2,65.5,29.64,SE,145,11.0,24.0,59,0.00,,---,0.01,VWS V14.01,2013-10-03 19:03:00,
2013-10-03 14:06:00,81.1,65.4,29.64,SE,132,18.0,24.0,59,0.00,,---,0.01,VWS V14.01,2013-10-03 19:06:00,
2013-10-03 14:07:00,81.1,65.4,29.64,SE,130,16.0,24.0,59,0.00,,---,0.01,VWS V14.01,2013-10-03 19:07:00,
2013-10-03 14:09:00,81.2,65.5,29.64,SE,131,17.0,24.0,59,0.00,,---,0.01,VWS V14.01,2013-10-03 19:09:00,
2013-10-03 14:11:00,81.6,65.4,29.64,SSE,157,4.0,24.0,58,0.00,,---,0.01,VWS V14.01,2013-10-03 19:11:00,
2013-10-03 14:12:00,81.8,66.1,29.64,SE,145,7.0,24.0,59,0.00,,---,0.01,VWS V14.01,2013-10-03 19:12:00,
2013-10-03 14:14:00,81.8,65.6,29.64,SSE,155,14.0,24.0,58,0.00,,---,0.01,VWS V14.01,2013-10-03 19:14:00,
2013-10-03 14:16:00,81.8,65.6,29.62,SSE,148,12.0,25.0,58,0.00,,---,0.01,VWS V14.01,2013-10-03 19:16:00,
2013-10-03 14:17:00,81.8,66.1,29.62,SE,139,16.0,25.0,59,0.00,,---,0.01,VWS V14.01,2013-10-03 19:17:00,
2013-10-03 14:18:00,81.8,65.6,29.62,SE,128,17.0,25.0,58,0.00,,---,0.01,VWS V14.01,2013-10-03 19:18:00,
2013-10-03 14:19:00,81.8,65.6,29.62,ESE,121,14.0,25.0,58,0.00,,---,0.01,VWS V14.01,2013-10-03 19:19:00,
2013-10-03 14:21:00,82.2,66.5,29.62,SE,137,9.0,17.0,59,0.00,,---,0.01,VWS V14.01,2013-10-03 19:21:00,
2013-10-03 14:22:00,82.2,66.0,29.62,SSE,150,16.0,28.0,58,0.00,,---,0.01,VWS V14.01,2013-10-03 19:22:00,
2013-10-03 14:23:00,82.2,65.5,29.62,SSE,152,12.0,28.0,57,0.00,,---,0.01,VWS V14.01,2013-10-03 19:23:00,
2013-10-03 14:24:00,82.2,67.4,29.62,SSE,160,16.0,28.0,61,0.00,,---,0.01,VWS V14.01,2013-10-03 19:24:00,
2013-10-03 14:26:00,82.2,66.0,29.62,SSE,148,21.0,28.0,58,0.00,,---,0.01,VWS V14.01,2013-10-03 19:26:00,
2013-10-03 14:27:00,82.2,65.5,29.62,SE,130,14.0,28.0,57,0.00,,---,0.01,VWS V14.01,2013-10-03 19:27:00,
2013-10-03 14:28:00,82.2,66.0,29.62,ESE,121,21.0,28.0,58,0.00,,---,0.01,VWS V14.01,2013-10-03 19:28:00,
2013-10-03 14:29:00,82.4,65.7,29.62,SSE,150,22.0,28.0,57,0.00,,---,0.01,VWS V14.01,2013-10-03 19:29:00,
2013-10-03 14:31:00,82.4,65.7,29.62,ESE,123,19.0,21.0,57,0.00,,---,0.01,VWS V14.01,2013-10-03 19:31:00,
2013-10-03 14:32:00,82.4,65.7,29.62,SE,128,21.0,21.0,57,0.00,,---,0.01,VWS V14.01,2013-10-03 19:32:00,
2013-10-03 14:33:00,82.4,65.7,29.62,SE,138,17.0,22.0,57,0.00,,---,0.01,VWS V14.01,2013-10-03 19:33:00,
2013-10-03 14:34:00,82.4,66.2,29.62,SE,136,22.0,26.0,58,0.00,,---,0.01,VWS V14.01,2013-10-03 19:34:00,
2013-10-03 14:36:00,82.6,65.8,29.62,SE,144,20.0,28.0,57,0.00,,---,0.01,VWS V14.01,2013-10-03 19:36:00,
2013-10-03 14:38:00,82.6,66.3,29.62,SSE,158,14.0,28.0,58,0.00,,---,0.01,VWS V14.01,2013-10-03 19:38:00,
2013-10-03 14:39:00,83.0,66.7,29.62,SE,132,18.0,28.0,58,0.00,,---,0.01,VWS V14.01,2013-10-03 19:39:00,
2013-10-03 14:41:00,83.0,66.2,29.62,SSE,151,7.0,24.0,57,0.00,,---,0.01,VWS V14.01,2013-10-03 19:41:00,
2013-10-03 14:43:00,83.2,66.4,29.62,SSE,157,18.0,25.0,57,0.00,,---,0.01,VWS V14.01,2013-10-03 19:43:00,
2013-10-03 14:44:00,83.4,66.6,29.61,SE,144,17.0,25.0,57,0.00,,---,0.01,VWS V14.01,2013-10-03 19:44:00,
2013-10-03 14:46:00,83.2,66.4,29.61,SE,142,19.0,25.0,57,0.00,,---,0.01,VWS V14.01,2013-10-03 19:46:00,
2013-10-03 14:48:00,83.0,66.2,29.61,SE,128,20.0,25.0,57,0.00,,---,0.01,VWS V14.01,2013-10-03 19:48:00,
2013-10-03 14:49:00,83.0,66.2,29.61,SE,145,19.0,25.0,57,0.00,,---,0.01,VWS V14.01,2013-10-03 19:49:00,
2013-10-03 14:51:00,83.0,66.2,29.61,SSE,153,17.0,22.0,57,0.00,,---,0.01,VWS V14.01,2013-10-03 19:51:00,
2013-10-03 14:53:00,82.8,66.5,29.61,SE,137,15.0,22.0,58,0.00,,---,0.01,VWS V14.01,2013-10-03 19:53:00,
2013-10-03 14:54:00,83.0,66.7,29.61,SE,140,11.0,22.0,58,0.00,,---,0.01,VWS V14.01,2013-10-03 19:54:00,
2013-10-03 14:56:00,83.4,67.1,29.61,SSE,155,12.0,25.0,58,0.00,,---,0.01,VWS V14.01,2013-10-03 19:56:00,
2013-10-03 14:58:00,83.4,67.1,29.61,South,178,16.0,26.0,58,0.00,,---,0.01,VWS V14.01,2013-10-03 19:58:00,
2013-10-03 14:59:00,83.4,66.6,29.61,SE,135,18.0,26.0,57,0.00,,---,0.01,VWS V14.01,2013-10-03 19:59:00,
2013-10-03 15:01:00,83.6,67.3,29.61,SE,138,15.0,23.0,58,0.00,,---,0.01,VWS V14.01,2013-10-03 20:01:00,
2013-10-03 15:03:00,83.6,66.8,29.61,SSE,148,10.0,23.0,57,0.00,,---,0.01,VWS V14.01,2013-10-03 20:03:00,
2013-10-03 15:04:00,83.6,67.3,29.61,SE,144,10.0,23.0,58,0.00,,---,0.01,VWS V14.01,2013-10-03 20:04:00,
2013-10-03 15:05:00,84.0,67.7,29.61,SE,140,7.0,23.0,58,0.00,,---,0.01,VWS V14.01,2013-10-03 20:05:00,
2013-10-03 15:06:00,84.1,67.7,29.61,SE,143,5.0,23.0,58,0.00,,---,0.01,VWS V14.01,2013-10-03 20:06:00,
2013-10-03 15:08:00,84.3,67.4,29.61,SE,143,13.0,23.0,57,0.00,,---,0.01,VWS V14.01,2013-10-03 20:08:00,
2013-10-03 15:09:00,84.1,66.7,29.61,SE,144,21.0,23.0,56,0.00,,---,0.01,VWS V14.01,2013-10-03 20:09:00,
2013-10-03 15:10:00,84.1,66.7,29.61,SE,145,18.0,23.0,56,0.00,,---,0.01,VWS V14.01,2013-10-03 20:10:00,
2013-10-03 15:11:00,84.0,67.1,29.61,SSE,150,14.0,17.0,57,0.00,,---,0.01,VWS V14.01,2013-10-03 20:11:00,
2013-10-03 15:13:00,84.0,66.6,29.61,SSE,153,12.0,21.0,56,0.00,,---,0.01,VWS V14.01,2013-10-03 20:13:00,
2013-10-03 15:14:00,84.0,66.6,29.61,SSE,155,3.0,21.0,56,0.00,,---,0.01,VWS V14.01,2013-10-03 20:14:00,
2013-10-03 15:15:00,84.0,66.6,29.60,South,182,6.0,21.0,56,0.00,,---,0.01,VWS V14.01,2013-10-03 20:15:00,
2013-10-03 15:16:00,84.0,66.6,29.60,SSE,153,21.0,21.0,56,0.00,,---,0.01,VWS V14.01,2013-10-03 20:16:00,
2013-10-03 15:18:00,84.0,66.6,29.60,SSE,154,5.0,21.0,56,0.00,,---,0.01,VWS V14.01,2013-10-03 20:18:00,
2013-10-03 15:19:00,84.1,66.7,29.60,SSE,153,6.0,21.0,56,0.00,,---,0.01,VWS V14.01,2013-10-03 20:19:00,
2013-10-03 15:20:00,84.3,67.4,29.60,SSE,148,23.0,24.0,57,0.00,,---,0.01,VWS V14.01,2013-10-03 20:20:00,
2013-10-03 15:21:00,84.5,67.1,29.60,SSE,159,9.0,26.0,56,0.00,,---,0.01,VWS V14.01,2013-10-03 20:21:00,
2013-10-03 15:23:00,84.7,67.3,29.60,SSE,157,13.0,26.0,56,0.00,,---,0.01,VWS V14.01,2013-10-03 20:23:00,
2013-10-03 15:24:00,84.7,66.2,29.60,SSE,157,2.0,26.0,54,0.00,,---,0.01,VWS V14.01,2013-10-03 20:24:00,
2013-10-03 15:25:00,84.9,67.5,29.60,SSE,155,24.0,26.0,56,0.00,,---,0.01,VWS V14.01,2013-10-03 20:25:00,
2013-10-03 15:26:00,84.7,66.8,29.60,SSE,160,6.0,26.0,55,0.00,,---,0.01,VWS V14.01,2013-10-03 20:26:00,
2013-10-03 15:28:00,84.7,66.8,29.60,SE,146,16.0,26.0,55,0.00,,---,0.01,VWS V14.01,2013-10-03 20:28:00,
2013-10-03 15:29:00,84.7,66.8,29.60,SSE,167,24.0,26.0,55,0.00,,---,0.01,VWS V14.01,2013-10-03 20:29:00,
2013-10-03 15:30:00,84.9,66.4,29.59,SSE,148,18.0,18.0,54,0.00,,---,0.01,VWS V14.01,2013-10-03 20:30:00,
2013-10-03 15:31:00,84.9,66.4,29.59,SSE,164,3.0,18.0,54,0.00,,---,0.01,VWS V14.01,2013-10-03 20:31:00,
2013-10-03 15:33:00,84.9,66.4,29.59,SSE,159,12.0,18.0,54,0.00,,---,0.01,VWS V14.01,2013-10-03 20:33:00,
2013-10-03 15:34:00,84.7,66.2,29.59,SE,146,7.0,18.0,54,0.00,,---,0.01,VWS V14.01,2013-10-03 20:34:00,
2013-10-03 15:35:00,84.7,66.2,29.59,SSE,151,9.0,18.0,54,0.00,,---,0.01,VWS V14.01,2013-10-03 20:35:00,
2013-10-03 15:36:00,84.7,65.7,29.59,SSE,160,7.0,20.0,53,0.00,,---,0.01,VWS V14.01,2013-10-03 20:36:00,
2013-10-03 15:38:00,84.7,65.1,29.59,SSE,156,6.0,22.0,52,0.00,,---,0.01,VWS V14.01,2013-10-03 20:38:00,
2013-10-03 15:39:00,84.9,65.3,29.59,SSE,155,16.0,22.0,52,0.00,,---,0.01,VWS V14.01,2013-10-03 20:39:00,
2013-10-03 15:40:00,84.9,64.8,29.59,SSE,159,5.0,11.0,51,0.00,,---,0.01,VWS V14.01,2013-10-03 20:40:00,
2013-10-03 15:41:00,85.1,65.0,29.59,SSE,151,16.0,16.0,51,0.00,,---,0.01,VWS V14.01,2013-10-03 20:41:00,
2013-10-03 15:43:00,85.3,64.6,29.59,South,169,5.0,20.0,50,0.00,,---,0.01,VWS V14.01,2013-10-03 20:43:00,
2013-10-03 15:44:00,85.3,65.1,29.59,SSE,151,14.0,20.0,51,0.00,,---,0.01,VWS V14.01,2013-10-03 20:44:00,
2013-10-03 15:45:00,85.3,65.1,29.59,SE,144,15.0,21.0,51,0.00,,---,0.01,VWS V14.01,2013-10-03 20:45:00,
2013-10-03 15:46:00,85.3,65.1,29.59,South,172,9.0,21.0,51,0.00,,---,0.01,VWS V14.01,2013-10-03 20:46:00,
2013-10-03 15:48:00,85.5,65.3,29.59,South,171,9.0,21.0,51,0.00,,---,0.01,VWS V14.01,2013-10-03 20:48:00,
2013-10-03 15:49:00,85.5,65.3,29.59,South,180,16.0,26.0,51,0.00,,---,0.01,VWS V14.01,2013-10-03 20:49:00,
2013-10-03 15:50:00,85.5,65.3,29.59,SSE,159,12.0,17.0,51,0.00,,---,0.01,VWS V14.01,2013-10-03 20:50:00,
2013-10-03 15:51:00,85.5,64.8,29.59,SSE,159,10.0,24.0,50,0.00,,---,0.01,VWS V14.01,2013-10-03 20:51:00,
2013-10-03 15:53:00,85.7,64.9,29.59,South,186,8.0,24.0,50,0.00,,---,0.01,VWS V14.01,2013-10-03 20:53:00,
2013-10-03 15:54:00,85.7,64.9,29.59,SSE,155,17.0,24.0,50,0.00,,---,0.01,VWS V14.01,2013-10-03 20:54:00,
2013-10-03 15:56:00,85.9,64.5,29.59,SSE,157,5.0,24.0,49,0.00,,---,0.01,VWS V14.01,2013-10-03 20:56:00,
2013-10-03 15:59:00,85.9,64.5,29.59,South,171,16.0,24.0,49,0.00,,---,0.01,VWS V14.01,2013-10-03 20:59:00,
2013-10-03 16:01:00,85.9,64.5,29.58,SSE,167,6.0,17.0,49,0.00,,---,0.01,VWS V14.01,2013-10-03 21:01:00,
2013-10-03 16:02:00,85.9,65.1,29.58,SSE,157,10.0,17.0,50,0.00,,---,0.01,VWS V14.01,2013-10-03 21:02:00,
2013-10-03 16:04:00,86.1,65.3,29.58,SE,145,16.0,20.0,50,0.00,,---,0.01,VWS V14.01,2013-10-03 21:04:00,
2013-10-03 16:06:00,85.9,65.7,29.58,SSE,155,4.0,22.0,51,0.00,,---,0.01,VWS V14.01,2013-10-03 21:06:00,
2013-10-03 16:07:00,85.9,65.7,29.58,SE,140,5.0,22.0,51,0.00,,---,0.01,VWS V14.01,2013-10-03 21:07:00,
2013-10-03 16:09:00,86.1,65.9,29.58,SSW,213,12.0,22.0,51,0.00,,---,0.01,VWS V14.01,2013-10-03 21:09:00,
2013-10-03 16:10:00,86.1,65.3,29.58,SSE,159,5.0,22.0,50,0.00,,---,0.01,VWS V14.01,2013-10-03 21:10:00,
2013-10-03 16:11:00,86.3,66.1,29.58,SE,146,4.0,11.0,51,0.00,,---,0.01,VWS V14.01,2013-10-03 21:11:00,
2013-10-03 16:12:00,86.3,66.1,29.58,SSE,165,4.0,11.0,51,0.00,,---,0.01,VWS V14.01,2013-10-03 21:12:00,
2013-10-03 16:14:00,86.5,65.7,29.58,SSE,147,14.0,17.0,50,0.00,,---,0.01,VWS V14.01,2013-10-03 21:14:00,
2013-10-03 16:15:00,86.5,65.7,29.58,SSE,155,5.0,17.0,50,0.00,,---,0.01,VWS V14.01,2013-10-03 21:15:00,
2013-10-03 16:16:00,86.7,65.3,29.58,SSE,150,11.0,27.0,49,0.00,,---,0.01,VWS V14.01,2013-10-03 21:16:00,
2013-10-03 16:17:00,86.7,65.3,29.58,SSE,168,11.0,27.0,49,0.00,,---,0.01,VWS V14.01,2013-10-03 21:17:00,
2013-10-03 16:19:00,86.7,65.3,29.58,SSE,156,12.0,27.0,49,0.00,,---,0.01,VWS V14.01,2013-10-03 21:19:00,
2013-10-03 16:20:00,86.5,65.1,29.58,SSE,161,8.0,27.0,49,0.00,,---,0.01,VWS V14.01,2013-10-03 21:20:00,
2013-10-03 16:21:00,86.5,65.1,29.58,SE,140,11.0,21.0,49,0.00,,---,0.01,VWS V14.01,2013-10-03 21:21:00,
2013-10-03 16:22:00,86.5,65.1,29.58,SSE,151,11.0,21.0,49,0.00,,---,0.01,VWS V14.01,2013-10-03 21:22:00,
2013-10-03 16:24:00,86.7,65.9,29.58,South,176,4.0,21.0,50,0.00,,---,0.01,VWS V14.01,2013-10-03 21:24:00,
2013-10-03 16:25:00,86.7,65.9,29.58,SSE,161,6.0,21.0,50,0.00,,---,0.01,VWS V14.01,2013-10-03 21:25:00,
2013-10-03 16:26:00,86.7,65.3,29.58,SSE,155,5.0,21.0,49,0.00,,---,0.01,VWS V14.01,2013-10-03 21:26:00,
2013-10-03 16:27:00,86.7,65.3,29.58,SE,146,11.0,21.0,49,0.00,,---,0.01,VWS V14.01,2013-10-03 21:27:00,
2013-10-03 16:29:00,86.7,65.3,29.58,South,184,10.0,21.0,49,0.00,,---,0.01,VWS V14.01,2013-10-03 21:29:00,
2013-10-03 16:30:00,86.7,65.9,29.58,SSE,162,4.0,21.0,50,0.00,,---,0.01,VWS V14.01,2013-10-03 21:30:00,
2013-10-03 16:31:00,86.7,65.3,29.58,South,170,7.0,15.0,49,0.00,,---,0.01,VWS V14.01,2013-10-03 21:31:00,
2013-10-03 16:32:00,86.7,65.3,29.58,South,179,5.0,15.0,49,0.00,,---,0.01,VWS V14.01,2013-10-03 21:32:00,
2013-10-03 16:34:00,86.7,65.3,29.58,SE,138,21.0,21.0,49,0.00,,---,0.01,VWS V14.01,2013-10-03 21:34:00,
2013-10-03 16:35:00,87.0,65.6,29.58,SSE,158,15.0,24.0,49,0.00,,---,0.01,VWS V14.01,2013-10-03 21:35:00,
2013-10-03 16:36:00,87.0,65.6,29.58,SE,141,20.0,24.0,49,0.00,,---,0.01,VWS V14.01,2013-10-03 21:36:00,
2013-10-03 16:37:00,87.0,65.0,29.58,SSE,151,13.0,24.0,48,0.00,,---,0.01,VWS V14.01,2013-10-03 21:37:00,
2013-10-03 16:39:00,86.7,65.3,29.58,SE,136,20.0,24.0,49,0.00,,---,0.01,VWS V14.01,2013-10-03 21:39:00,
2013-10-03 16:40:00,86.7,64.7,29.58,SE,140,21.0,21.0,48,0.00,,---,0.01,VWS V14.01,2013-10-03 21:40:00,
2013-10-03 16:42:00,86.7,65.3,29.58,SSE,155,21.0,24.0,49,0.00,,---,0.01,VWS V14.01,2013-10-03 21:42:00,
2013-10-03 16:44:00,86.7,65.3,29.58,SSE,155,6.0,24.0,49,0.00,,---,0.01,VWS V14.01,2013-10-03 21:44:00,
2013-10-03 16:45:00,86.7,65.9,29.58,SE,146,15.0,24.0,50,0.00,,---,0.01,VWS V14.01,2013-10-03 21:45:00,
2013-10-03 16:46:00,87.0,66.1,29.58,SSE,148,18.0,24.0,50,0.00,,---,0.01,VWS V14.01,2013-10-03 21:46:00,
2013-10-03 16:47:00,87.0,65.0,29.58,SSE,156,15.0,29.0,48,0.00,,---,0.01,VWS V14.01,2013-10-03 21:47:00,
2013-10-03 16:49:00,87.0,65.6,29.58,SE,145,15.0,29.0,49,0.00,,---,0.01,VWS V14.01,2013-10-03 21:49:00,
2013-10-03 16:50:00,87.0,65.0,29.58,SSE,159,18.0,20.0,48,0.00,,---,0.01,VWS V14.01,2013-10-03 21:50:00,
2013-10-03 16:51:00,86.7,64.7,29.58,SSE,159,14.0,21.0,48,0.00,,---,0.01,VWS V14.01,2013-10-03 21:51:00,
2013-10-03 16:52:00,87.0,65.6,29.58,SSE,163,11.0,21.0,49,0.00,,---,0.01,VWS V14.01,2013-10-03 21:52:00,
2013-10-03 16:54:00,87.0,65.6,29.58,South,185,15.0,21.0,49,0.00,,---,0.01,VWS V14.01,2013-10-03 21:54:00,
2013-10-03 16:55:00,86.7,65.3,29.58,SE,140,12.0,21.0,49,0.00,,---,0.01,VWS V14.01,2013-10-03 21:55:00,
2013-10-03 16:56:00,86.7,65.3,29.58,SSE,155,7.0,23.0,49,0.00,,---,0.01,VWS V14.01,2013-10-03 21:56:00,
2013-10-03 16:57:00,86.7,65.3,29.58,SSE,154,10.0,23.0,49,0.00,,---,0.01,VWS V14.01,2013-10-03 21:57:00,
2013-10-03 16:59:00,86.5,65.1,29.58,SSE,157,13.0,23.0,49,0.00,,---,0.01,VWS V14.01,2013-10-03 21:59:00,
2013-10-03 17:00:00,86.5,65.1,29.58,SSE,153,5.0,23.0,49,0.00,,---,0.01,VWS V14.01,2013-10-03 22:00:00,
2013-10-03 17:01:00,86.7,65.3,29.58,SE,145,14.0,23.0,49,0.00,,---,0.01,VWS V14.01,2013-10-03 22:01:00,
2013-10-03 17:02:00,86.7,64.7,29.58,SSE,153,10.0,23.0,48,0.00,,---,0.01,VWS V14.01,2013-10-03 22:02:00,
2013-10-03 17:04:00,87.0,65.6,29.58,SE,142,9.0,23.0,49,0.00,,---,0.01,VWS V14.01,2013-10-03 22:04:00,
2013-10-03 17:05:00,87.0,65.6,29.58,SSE,149,13.0,23.0,49,0.00,,---,0.01,VWS V14.01,2013-10-03 22:05:00,
2013-10-03 17:06:00,87.0,65.0,29.58,SSE,155,4.0,23.0,48,0.00,,---,0.01,VWS V14.01,2013-10-03 22:06:00,
2013-10-03 17:07:00,87.0,65.0,29.58,SSE,148,4.0,23.0,48,0.00,,---,0.01,VWS V14.01,2013-10-03 22:07:00,
2013-10-03 17:10:00,87.0,65.6,29.58,SE,143,5.0,23.0,49,0.00,,---,0.01,VWS V14.01,2013-10-03 22:10:00,
2013-10-03 17:11:00,87.0,66.1,29.58,SE,138,12.0,15.0,50,0.00,,---,0.01,VWS V14.01,2013-10-03 22:11:00,
2013-10-03 17:12:00,87.0,65.6,29.58,SSE,156,11.0,15.0,49,0.00,,---,0.01,VWS V14.01,2013-10-03 22:12:00,
2013-10-03 17:15:00,87.0,65.6,29.58,SSE,150,13.0,21.0,49,0.00,,---,0.01,VWS V14.01,2013-10-03 22:15:00,
2013-10-03 17:16:00,87.0,65.6,29.58,SSE,149,19.0,24.0,49,0.00,,---,0.01,VWS V14.01,2013-10-03 22:16:00,
2013-10-03 17:17:00,86.7,65.3,29.58,SSE,157,11.0,24.0,49,0.00,,---,0.01,VWS V14.01,2013-10-03 22:17:00,
2013-10-03 17:20:00,86.7,64.7,29.58,South,182,5.0,25.0,48,0.00,,---,0.01,VWS V14.01,2013-10-03 22:20:00,
2013-10-03 17:21:00,86.7,64.7,29.58,SSE,168,7.0,11.0,48,0.00,,---,0.01,VWS V14.01,2013-10-03 22:21:00,
2013-10-03 17:22:00,87.0,65.0,29.58,SSE,153,10.0,14.0,48,0.00,,---,0.01,VWS V14.01,2013-10-03 22:22:00,
2013-10-03 17:25:00,87.0,65.6,29.58,SE,135,8.0,21.0,49,0.00,,---,0.01,VWS V14.01,2013-10-03 22:25:00,
2013-10-03 17:26:00,87.0,65.0,29.58,SE,139,6.0,21.0,48,0.00,,---,0.01,VWS V14.01,2013-10-03 22:26:00,
2013-10-03 17:27:00,86.7,65.3,29.58,South,172,6.0,22.0,49,0.00,,---,0.01,VWS V14.01,2013-10-03 22:27:00,
2013-10-03 17:30:00,86.7,65.9,29.58,SSE,152,13.0,13.0,50,0.00,,---,0.01,VWS V14.01,2013-10-03 22:30:00,
2013-10-03 17:31:00,86.5,65.7,29.58,SSE,153,4.0,14.0,50,0.00,,---,0.01,VWS V14.01,2013-10-03 22:31:00,
2013-10-03 17:32:00,86.5,65.1,29.58,SE,146,9.0,14.0,49,0.00,,---,0.01,VWS V14.01,2013-10-03 22:32:00,
2013-10-03 17:33:00,86.5,65.1,29.58,SE,142,11.0,14.0,49,0.00,,---,0.01,VWS V14.01,2013-10-03 22:33:00,
2013-10-03 17:35:00,86.7,65.3,29.58,SSE,148,14.0,24.0,49,0.00,,---,0.01,VWS V14.01,2013-10-03 22:35:00,
2013-10-03 17:36:00,86.7,65.3,29.58,SE,146,4.0,24.0,49,0.00,,---,0.01,VWS V14.01,2013-10-03 22:36:00,
2013-10-03 17:37:00,86.7,65.3,29.58,SSE,153,11.0,24.0,49,0.00,,---,0.01,VWS V14.01,2013-10-03 22:37:00,
2013-10-03 17:38:00,86.7,65.3,29.58,SSE,155,13.0,24.0,49,0.00,,---,0.01,VWS V14.01,2013-10-03 22:38:00,
2013-10-03 17:40:00,86.7,65.3,29.58,SSE,150,7.0,10.0,49,0.00,,---,0.01,VWS V14.01,2013-10-03 22:40:00,
2013-10-03 17:41:00,86.7,65.3,29.58,SSE,155,9.0,17.0,49,0.00,,---,0.01,VWS V14.01,2013-10-03 22:41:00,
2013-10-03 17:42:00,86.7,65.3,29.58,SSE,148,7.0,17.0,49,0.00,,---,0.01,VWS V14.01,2013-10-03 22:42:00,
2013-10-03 17:43:00,86.7,65.3,29.58,SSE,148,7.0,17.0,49,0.00,,---,0.01,VWS V14.01,2013-10-03 22:43:00,
2013-10-03 17:45:00,86.5,65.7,29.58,SSE,154,15.0,17.0,50,0.00,,---,0.01,VWS V14.01,2013-10-03 22:45:00,
2013-10-03 17:46:00,86.5,65.7,29.58,SSE,149,4.0,19.0,50,0.00,,---,0.01,VWS V14.01,2013-10-03 22:46:00,
2013-10-03 17:47:00,86.5,65.7,29.58,SE,146,11.0,19.0,50,0.00,,---,0.01,VWS V14.01,2013-10-03 22:47:00,
2013-10-03 17:48:00,86.5,65.7,29.58,SSE,152,5.0,19.0,50,0.00,,---,0.01,VWS V14.01,2013-10-03 22:48:00,
2013-10-03 17:50:00,86.5,65.7,29.58,SSE,154,10.0,11.0,50,0.00,,---,0.01,VWS V14.01,2013-10-03 22:50:00,
2013-10-03 17:51:00,86.5,65.7,29.58,SE,146,4.0,21.0,50,0.00,,---,0.01,VWS V14.01,2013-10-03 22:51:00,
2013-10-03 17:53:00,86.3,65.5,29.58,SSE,164,17.0,23.0,50,0.00,,---,0.01,VWS V14.01,2013-10-03 22:53:00,
2013-10-03 17:55:00,86.3,65.5,29.58,SSE,148,20.0,23.0,50,0.00,,---,0.01,VWS V14.01,2013-10-03 22:55:00,
2013-10-03 17:56:00,86.3,65.5,29.58,SSE,148,7.0,23.0,50,0.00,,---,0.01,VWS V14.01,2013-10-03 22:56:00,
2013-10-03 17:58:00,86.3,65.5,29.58,SSE,147,14.0,23.0,50,0.00,,---,0.01,VWS V14.01,2013-10-03 22:58:00,
2013-10-03 18:00:00,86.3,66.1,29.58,SSE,154,18.0,20.0,51,0.00,,---,0.01,VWS V14.01,2013-10-03 23:00:00,
2013-10-03 18:01:00,86.1,65.9,29.58,SSE,149,11.0,21.0,51,0.00,,---,0.01,VWS V14.01,2013-10-03 23:01:00,
2013-10-03 18:03:00,86.1,65.9,29.58,South,175,6.0,21.0,51,0.00,,---,0.01,VWS V14.01,2013-10-03 23:03:00,
2013-10-03 18:04:00,86.1,65.9,29.58,South,171,3.0,21.0,51,0.00,,---,0.01,VWS V14.01,2013-10-03 23:04:00,
2013-10-03 18:05:00,86.1,65.9,29.58,SSE,162,9.0,21.0,51,0.00,,---,0.01,VWS V14.01,2013-10-03 23:05:00,
2013-10-03 18:06:00,85.9,65.7,29.58,SSE,163,5.0,21.0,51,0.00,,---,0.01,VWS V14.01,2013-10-03 23:06:00,
2013-10-03 18:08:00,85.9,65.7,29.58,SSE,154,6.0,21.0,51,0.00,,---,0.01,VWS V14.01,2013-10-03 23:08:00,
2013-10-03 18:09:00,85.9,65.7,29.58,SSE,160,17.0,21.0,51,0.00,,---,0.01,VWS V14.01,2013-10-03 23:09:00,
2013-10-03 18:10:00,85.9,65.7,29.58,SE,143,10.0,11.0,51,0.00,,---,0.01,VWS V14.01,2013-10-03 23:10:00,
2013-10-03 18:11:00,85.9,65.7,29.58,South,175,11.0,22.0,51,0.00,,---,0.01,VWS V14.01,2013-10-03 23:11:00,
2013-10-03 18:13:00,85.9,65.7,29.58,SE,143,19.0,22.0,51,0.00,,---,0.01,VWS V14.01,2013-10-03 23:13:00,
2013-10-03 18:14:00,86.1,65.9,29.58,SE,144,2.0,22.0,51,0.00,,---,0.01,VWS V14.01,2013-10-03 23:14:00,
2013-10-03 18:15:00,85.9,65.7,29.58,SSE,157,5.0,22.0,51,0.00,,---,0.01,VWS V14.01,2013-10-03 23:15:00,
2013-10-03 18:17:00,85.9,65.7,29.58,SSE,156,7.0,22.0,51,0.00,,---,0.01,VWS V14.01,2013-10-03 23:17:00,
2013-10-03 18:18:00,85.9,67.9,29.58,SSE,153,3.0,22.0,55,0.00,,---,0.01,VWS V14.01,2013-10-03 23:18:00,
2013-10-03 18:19:00,85.7,66.1,29.58,SSE,155,3.0,22.0,52,0.00,,---,0.01,VWS V14.01,2013-10-03 23:19:00,
2013-10-03 18:20:00,85.7,66.1,29.58,SE,146,16.0,16.0,52,0.00,,---,0.01,VWS V14.01,2013-10-03 23:20:00,
2013-10-03 18:22:00,85.7,66.1,29.58,SSE,150,4.0,16.0,52,0.00,,---,0.01,VWS V14.01,2013-10-03 23:22:00,
2013-10-03 18:23:00,85.5,65.9,29.58,SSE,147,13.0,16.0,52,0.00,,---,0.01,VWS V14.01,2013-10-03 23:23:00,
2013-10-03 18:24:00,85.5,65.9,29.58,SSE,150,3.0,16.0,52,0.00,,---,0.01,VWS V14.01,2013-10-03 23:24:00,
2013-10-03 18:25:00,85.5,66.4,29.58,SSE,152,7.0,16.0,53,0.00,,---,0.01,VWS V14.01,2013-10-03 23:25:00,
2013-10-03 18:27:00,85.3,66.2,29.58,SSE,156,11.0,16.0,53,0.00,,---,0.01,VWS V14.01,2013-10-03 23:27:00,
2013-10-03 18:28:00,85.3,66.2,29.58,SSE,147,12.0,16.0,53,0.00,,---,0.01,VWS V14.01,2013-10-03 23:28:00,
2013-10-03 18:29:00,85.3,65.7,29.59,SSE,149,0.0,16.0,52,0.00,,---,0.01,VWS V14.01,2013-10-03 23:29:00,
2013-10-03 18:30:00,85.3,66.2,29.59,SSE,153,12.0,15.0,53,0.00,,---,0.01,VWS V14.01,2013-10-03 23:30:00,
2013-10-03 18:32:00,85.3,66.2,29.59,SSE,149,7.0,15.0,53,0.00,,---,0.01,VWS V14.01,2013-10-03 23:32:00,
2013-10-03 18:33:00,85.3,66.2,29.59,South,179,7.0,15.0,53,0.00,,---,0.01,VWS V14.01,2013-10-03 23:33:00,
2013-10-03 18:34:00,85.3,65.7,29.59,SSE,153,15.0,17.0,52,0.00,,---,0.01,VWS V14.01,2013-10-03 23:34:00,
2013-10-03 18:35:00,85.1,65.5,29.59,SE,146,12.0,18.0,52,0.00,,---,0.01,VWS V14.01,2013-10-03 23:35:00,
2013-10-03 18:36:00,85.1,65.5,29.59,SE,143,9.0,18.0,52,0.00,,---,0.01,VWS V14.01,2013-10-03 23:36:00,
2013-10-03 18:37:00,85.1,65.5,29.59,SSE,155,3.0,18.0,52,0.00,,---,0.01,VWS V14.01,2013-10-03 23:37:00,
2013-10-03 18:38:00,85.1,65.5,29.59,SSE,157,10.0,18.0,52,0.00,,---,0.01,VWS V14.01,2013-10-03 23:38:00,
2013-10-03 18:40:00,85.1,65.5,29.59,SE,146,6.0,18.0,52,0.00,,---,0.01,VWS V14.01,2013-10-03 23:40:00,
2013-10-03 18:41:00,85.1,65.5,29.59,SSE,151,6.0,10.0,52,0.00,,---,0.01,VWS V14.01,2013-10-03 23:41:00,
2013-10-03 18:42:00,84.9,65.9,29.59,SSE,157,3.0,11.0,53,0.00,,---,0.01,VWS V14.01,2013-10-03 23:42:00,
2013-10-03 18:43:00,84.9,65.9,29.59,SSE,150,8.0,11.0,53,0.00,,---,0.01,VWS V14.01,2013-10-03 23:43:00,
2013-10-03 18:45:00,84.7,65.7,29.59,SSE,148,4.0,11.0,53,0.00,,---,0.01,VWS V14.01,2013-10-03 23:45:00,
2013-10-03 18:46:00,84.7,65.7,29.59,SSE,154,10.0,12.0,53,0.00,,---,0.01,VWS V14.01,2013-10-03 23:46:00,
2013-10-03 18:47:00,84.7,66.2,29.59,SSE,150,10.0,12.0,54,0.00,,---,0.01,VWS V14.01,2013-10-03 23:47:00,
2013-10-03 18:48:00,84.5,66.1,29.59,SSE,151,5.0,12.0,54,0.00,,---,0.01,VWS V14.01,2013-10-03 23:48:00,
2013-10-03 18:49:00,84.5,66.1,29.59,SSE,160,9.0,12.0,54,0.00,,---,0.01,VWS V14.01,2013-10-03 23:49:00,
2013-10-03 18:50:00,84.5,66.1,29.59,SSE,161,5.0,6.0,54,0.00,,---,0.01,VWS V14.01,2013-10-03 23:50:00,
2013-10-03 18:51:00,84.5,66.1,29.59,SSE,155,2.0,10.0,54,0.00,,---,0.01,VWS V14.01,2013-10-03 23:51:00,
2013-10-03 18:52:00,84.5,66.1,29.59,SSE,150,9.0,11.0,54,0.00,,---,0.01,VWS V14.01,2013-10-03 23:52:00,
2013-10-03 18:53:00,84.5,66.1,29.59,SSE,163,3.0,11.0,54,0.00,,---,0.01,VWS V14.01,2013-10-03 23:53:00,
2013-10-03 18:54:00,84.3,65.9,29.59,SSE,155,5.0,11.0,54,0.00,,---,0.01,VWS V14.01,2013-10-03 23:54:00,
2013-10-03 18:55:00,84.3,65.9,29.59,SE,133,3.0,11.0,54,0.00,,---,0.01,VWS V14.01,2013-10-03 23:55:00,
2013-10-03 18:56:00,84.3,65.9,29.59,SSE,150,3.0,11.0,54,0.00,,---,0.01,VWS V14.01,2013-10-03 23:56:00,
2013-10-03 18:57:00,84.3,65.9,29.59,SSE,155,4.0,12.0,54,0.00,,---,0.01,VWS V14.01,2013-10-03 23:57:00,
2013-10-03 18:58:00,84.3,65.9,29.59,SSE,155,5.0,12.0,54,0.00,,---,0.01,VWS V14.01,2013-10-03 23:58:00,
2013-10-03 18:59:00,84.1,65.7,29.59,SSE,149,9.0,12.0,54,0.00,,---,0.01,VWS V14.01,2013-10-03 23:59:00,
2013-10-03 19:00:00,84.1,65.7,29.59,SSE,154,7.0,7.0,54,0.00,,---,0.01,VWS V14.01,2013-10-04 00:00:00,
2013-10-03 19:01:00,84.1,65.7,29.59,SSE,159,4.0,7.0,54,0.00,,---,0.01,VWS V14.01,2013-10-04 00:01:00,
2013-10-03 19:02:00,84.0,65.6,29.59,SSE,150,7.0,11.0,54,0.00,,---,0.01,VWS V14.01,2013-10-04 00:02:00,
2013-10-03 19:03:00,84.0,65.6,29.59,SSE,148,12.0,12.0,54,0.00,,---,0.01,VWS V14.01,2013-10-04 00:03:00,
2013-10-03 19:04:00,84.0,66.1,29.59,SSE,151,7.0,12.0,55,0.00,,---,0.01,VWS V14.01,2013-10-04 00:04:00,
2013-10-03 19:05:00,83.8,65.9,29.59,SSE,150,3.0,12.0,55,0.00,,---,0.01,VWS V14.01,2013-10-04 00:05:00,
2013-10-03 19:06:00,83.8,65.9,29.59,SSE,150,5.0,12.0,55,0.00,,---,0.01,VWS V14.01,2013-10-04 00:06:00,
2013-10-03 19:08:00,83.8,65.9,29.59,SSE,150,5.0,12.0,55,0.00,,---,0.01,VWS V14.01,2013-10-04 00:08:00,
2013-10-03 19:09:00,83.8,65.9,29.59,SSE,153,3.0,12.0,55,0.00,,---,0.01,VWS V14.01,2013-10-04 00:09:00,
2013-10-03 19:11:00,83.8,65.9,29.59,SSE,150,6.0,10.0,55,0.00,,---,0.01,VWS V14.01,2013-10-04 00:11:00,
2013-10-03 19:13:00,83.6,65.7,29.59,SE,146,6.0,10.0,55,0.00,,---,0.01,VWS V14.01,2013-10-04 00:13:00,
2013-10-03 19:14:00,83.6,65.7,29.60,SSE,151,7.0,10.0,55,0.00,,---,0.01,VWS V14.01,2013-10-04 00:14:00,
2013-10-03 19:16:00,83.4,65.6,29.60,SSE,151,3.0,11.0,55,0.00,,---,0.01,VWS V14.01,2013-10-04 00:16:00,
2013-10-03 19:18:00,83.4,65.6,29.60,SSE,161,3.0,16.0,55,0.00,,---,0.01,VWS V14.01,2013-10-04 00:18:00,
2013-10-03 19:19:00,83.4,65.6,29.60,SSE,154,4.0,16.0,55,0.00,,---,0.01,VWS V14.01,2013-10-04 00:19:00,
2013-10-03 19:21:00,83.4,65.6,29.60,SSE,156,6.0,7.0,55,0.00,,---,0.01,VWS V14.01,2013-10-04 00:21:00,
2013-10-03 19:23:00,83.4,66.1,29.60,SE,133,14.0,15.0,56,0.00,,---,0.01,VWS V14.01,2013-10-04 00:23:00,
2013-10-03 19:24:00,83.4,66.1,29.60,SSE,159,1.0,15.0,56,0.00,,---,0.01,VWS V14.01,2013-10-04 00:24:00,
2013-10-03 19:26:00,83.2,65.9,29.60,SSE,159,6.0,15.0,56,0.00,,---,0.01,VWS V14.01,2013-10-04 00:26:00,
2013-10-03 19:28:00,83.2,65.9,29.60,SSE,148,3.0,15.0,56,0.00,,---,0.01,VWS V14.01,2013-10-04 00:28:00,
2013-10-03 19:29:00,83.2,65.9,29.60,SSE,157,11.0,15.0,56,0.00,,---,0.01,VWS V14.01,2013-10-04 00:29:00,
2013-10-03 19:31:00,83.2,65.9,29.60,SSE,149,5.0,11.0,56,0.00,,---,0.01,VWS V14.01,2013-10-04 00:31:00,
2013-10-03 19:33:00,83.0,65.7,29.60,SSE,149,9.0,14.0,56,0.00,,---,0.01,VWS V14.01,2013-10-04 00:33:00,
2013-10-03 19:34:00,83.0,66.2,29.60,SE,145,7.0,14.0,57,0.00,,---,0.01,VWS V14.01,2013-10-04 00:34:00,
2013-10-03 19:36:00,82.8,66.0,29.60,SSE,150,7.0,14.0,57,0.00,,---,0.01,VWS V14.01,2013-10-04 00:36:00,
2013-10-03 19:38:00,82.6,65.8,29.60,SSE,148,10.0,14.0,57,0.00,,---,0.01,VWS V14.01,2013-10-04 00:38:00,
2013-10-03 19:40:00,82.4,65.7,29.60,SSE,149,4.0,14.0,57,0.00,,---,0.01,VWS V14.01,2013-10-04 00:40:00,
2013-10-03 19:41:00,82.4,66.2,29.60,SSE,152,5.0,12.0,58,0.00,,---,0.01,VWS V14.01,2013-10-04 00:41:00,
2013-10-03 19:42:00,82.4,66.2,29.60,SSE,154,5.0,12.0,58,0.00,,---,0.01,VWS V14.01,2013-10-04 00:42:00,
2013-10-03 19:43:00,82.2,66.0,29.60,SSE,156,5.0,12.0,58,0.00,,---,0.01,VWS V14.01,2013-10-04 00:43:00,
2013-10-03 19:44:00,82.2,66.0,29.60,SSE,155,9.0,12.0,58,0.00,,---,0.01,VWS V14.01,2013-10-04 00:44:00,
2013-10-03 19:45:00,82.0,66.3,29.61,SSE,155,4.0,12.0,59,0.00,,---,0.01,VWS V14.01,2013-10-04 00:45:00,
2013-10-03 19:46:00,82.0,66.3,29.61,SE,144,10.0,12.0,59,0.00,,---,0.01,VWS V14.01,2013-10-04 00:46:00,
2013-10-03 19:47:00,81.8,66.1,29.61,SE,145,4.0,12.0,59,0.00,,---,0.01,VWS V14.01,2013-10-04 00:47:00,
2013-10-03 19:48:00,81.8,66.1,29.61,SSE,149,7.0,12.0,59,0.00,,---,0.01,VWS V14.01,2013-10-04 00:48:00,
2013-10-03 19:49:00,81.8,66.1,29.61,SSE,152,6.0,12.0,59,0.00,,---,0.01,VWS V14.01,2013-10-04 00:49:00,
2013-10-03 19:50:00,81.6,65.9,29.61,SE,143,6.0,13.0,59,0.00,,---,0.01,VWS V14.01,2013-10-04 00:50:00,
2013-10-03 19:51:00,81.6,65.9,29.61,SSE,152,3.0,10.0,59,0.00,,---,0.01,VWS V14.01,2013-10-04 00:51:00,
2013-10-03 19:52:00,81.6,66.4,29.61,SSE,152,4.0,10.0,60,0.00,,---,0.01,VWS V14.01,2013-10-04 00:52:00,
2013-10-03 19:53:00,81.4,66.2,29.61,SSE,153,3.0,11.0,60,0.00,,---,0.01,VWS V14.01,2013-10-04 00:53:00,
2013-10-03 19:54:00,81.4,66.2,29.61,SSE,148,3.0,11.0,60,0.00,,---,0.01,VWS V14.01,2013-10-04 00:54:00,
2013-10-03 19:55:00,81.4,66.2,29.61,SE,135,6.0,12.0,60,0.00,,---,0.01,VWS V14.01,2013-10-04 00:55:00,
2013-10-03 19:56:00,81.4,66.2,29.61,SE,142,5.0,12.0,60,0.00,,---,0.01,VWS V14.01,2013-10-04 00:56:00,
2013-10-03 19:57:00,81.4,66.2,29.61,SSE,147,5.0,12.0,60,0.00,,---,0.01,VWS V14.01,2013-10-04 00:57:00,
2013-10-03 19:58:00,81.2,66.5,29.61,SSE,150,9.0,12.0,61,0.00,,---,0.01,VWS V14.01,2013-10-04 00:58:00,
2013-10-03 19:59:00,81.2,66.5,29.61,SSE,151,6.0,12.0,61,0.00,,---,0.01,VWS V14.01,2013-10-04 00:59:00,
2013-10-03 20:01:00,81.2,66.5,29.62,SE,144,10.0,12.0,61,0.00,,---,0.01,VWS V14.01,2013-10-04 01:01:00,
2013-10-03 20:02:00,81.2,66.5,29.62,SE,146,7.0,13.0,61,0.00,,---,0.01,VWS V14.01,2013-10-04 01:02:00,
2013-10-03 20:04:00,81.2,66.5,29.62,SE,146,10.0,13.0,61,0.00,,---,0.01,VWS V14.01,2013-10-04 01:04:00,
2013-10-03 20:06:00,81.2,66.5,29.62,SE,146,9.0,14.0,61,0.00,,---,0.01,VWS V14.01,2013-10-04 01:06:00,
2013-10-03 20:07:00,81.2,66.5,29.62,SE,139,9.0,14.0,61,0.00,,---,0.01,VWS V14.01,2013-10-04 01:07:00,
2013-10-03 20:09:00,81.2,66.5,29.62,SE,144,12.0,14.0,61,0.00,,---,0.01,VWS V14.01,2013-10-04 01:09:00,
2013-10-03 20:11:00,81.2,66.5,29.62,SE,128,4.0,12.0,61,0.00,,---,0.01,VWS V14.01,2013-10-04 01:11:00,
2013-10-03 20:12:00,81.2,66.5,29.62,SSE,150,9.0,13.0,61,0.00,,---,0.01,VWS V14.01,2013-10-04 01:12:00,
2013-10-03 20:14:00,81.2,66.5,29.62,SE,133,7.0,13.0,61,0.00,,---,0.01,VWS V14.01,2013-10-04 01:14:00,
2013-10-03 20:16:00,81.2,66.5,29.63,SE,141,9.0,14.0,61,0.00,,---,0.01,VWS V14.01,2013-10-04 01:16:00,
2013-10-03 20:17:00,81.1,66.4,29.63,SSE,150,12.0,14.0,61,0.00,,---,0.01,VWS V14.01,2013-10-04 01:17:00,
2013-10-03 20:19:00,81.1,66.4,29.63,SE,140,13.0,15.0,61,0.00,,---,0.01,VWS V14.01,2013-10-04 01:19:00,
2013-10-03 20:21:00,81.1,66.4,29.63,SE,140,9.0,11.0,61,0.00,,---,0.01,VWS V14.01,2013-10-04 01:21:00,
2013-10-03 20:22:00,81.1,66.4,29.63,SE,129,8.0,14.0,61,0.00,,---,0.01,VWS V14.01,2013-10-04 01:22:00,
2013-10-03 20:24:00,81.1,66.9,29.63,SE,132,11.0,14.0,62,0.00,,---,0.01,VWS V14.01,2013-10-04 01:24:00,
2013-10-03 20:25:00,80.9,66.7,29.63,SE,143,11.0,14.0,62,0.00,,---,0.01,VWS V14.01,2013-10-04 01:25:00,
2013-10-03 20:26:00,80.9,66.7,29.63,SE,146,9.0,14.0,62,0.00,,---,0.01,VWS V14.01,2013-10-04 01:26:00,
2013-10-03 20:27:00,80.7,66.5,29.63,SE,142,9.0,16.0,62,0.00,,---,0.01,VWS V14.01,2013-10-04 01:27:00,
2013-10-03 20:29:00,80.7,66.5,29.63,SE,138,7.0,16.0,62,0.00,,---,0.01,VWS V14.01,2013-10-04 01:29:00,
2013-10-03 20:30:00,80.7,66.5,29.63,SE,146,6.0,16.0,62,0.00,,---,0.01,VWS V14.01,2013-10-04 01:30:00,
2013-10-03 20:31:00,80.5,66.3,29.63,SE,132,11.0,14.0,62,0.00,,---,0.01,VWS V14.01,2013-10-04 01:31:00,
2013-10-03 20:32:00,80.5,66.3,29.63,SE,131,6.0,14.0,62,0.00,,---,0.01,VWS V14.01,2013-10-04 01:32:00,
2013-10-03 20:34:00,80.5,66.8,29.63,SSE,147,14.0,16.0,63,0.00,,---,0.01,VWS V14.01,2013-10-04 01:34:00,
2013-10-03 20:35:00,80.3,66.6,29.63,SSE,153,9.0,16.0,63,0.00,,---,0.01,VWS V14.01,2013-10-04 01:35:00,
2013-10-03 20:36:00,80.3,66.6,29.63,SE,130,11.0,16.0,63,0.00,,---,0.01,VWS V14.01,2013-10-04 01:36:00,
2013-10-03 20:37:00,80.3,66.6,29.63,SE,143,12.0,16.0,63,0.00,,---,0.01,VWS V14.01,2013-10-04 01:37:00,
2013-10-03 20:39:00,80.1,66.4,29.63,SE,141,14.0,16.0,63,0.00,,---,0.01,VWS V14.01,2013-10-04 01:39:00,
2013-10-03 20:40:00,80.1,66.8,29.63,SSE,148,10.0,10.0,64,0.00,,---,0.01,VWS V14.01,2013-10-04 01:40:00,
2013-10-03 20:41:00,80.1,66.8,29.63,SE,144,11.0,13.0,64,0.00,,---,0.01,VWS V14.01,2013-10-04 01:41:00,
2013-10-03 20:42:00,80.1,66.8,29.63,SSE,150,10.0,15.0,64,0.00,,---,0.01,VWS V14.01,2013-10-04 01:42:00,
2013-10-03 20:43:00,80.1,66.8,29.63,SE,143,11.0,15.0,64,0.00,,---,0.01,VWS V14.01,2013-10-04 01:43:00,
2013-10-03 20:44:00,79.9,66.7,29.64,SE,144,12.0,15.0,64,0.00,,---,0.01,VWS V14.01,2013-10-04 01:44:00,
2013-10-03 20:45:00,79.9,66.7,29.64,SE,136,9.0,15.0,64,0.00,,---,0.01,VWS V14.01,2013-10-04 01:45:00,
2013-10-03 20:46:00,79.9,66.7,29.64,SE,134,12.0,15.0,64,0.00,,---,0.01,VWS V14.01,2013-10-04 01:46:00,
2013-10-03 20:47:00,79.9,66.7,29.64,SE,134,13.0,15.0,64,0.00,,---,0.01,VWS V14.01,2013-10-04 01:47:00,
2013-10-03 20:48:00,79.9,66.7,29.64,SE,141,14.0,15.0,64,0.00,,---,0.01,VWS V14.01,2013-10-04 01:48:00,
2013-10-03 20:49:00,79.9,66.7,29.64,SE,142,10.0,17.0,64,0.00,,---,0.01,VWS V14.01,2013-10-04 01:49:00,
2013-10-03 20:50:00,79.9,66.7,29.64,SE,144,13.0,15.0,64,0.00,,---,0.01,VWS V14.01,2013-10-04 01:50:00,
2013-10-03 20:51:00,79.9,66.7,29.64,SE,137,10.0,15.0,64,0.00,,---,0.01,VWS V14.01,2013-10-04 01:51:00,
2013-10-03 20:52:00,79.9,66.7,29.64,SE,136,12.0,15.0,64,0.00,,---,0.01,VWS V14.01,2013-10-04 01:52:00,
2013-10-03 20:53:00,79.9,66.7,29.64,SE,137,6.0,15.0,64,0.00,,---,0.01,VWS V14.01,2013-10-04 01:53:00,
2013-10-03 20:54:00,79.9,66.7,29.64,SE,139,9.0,17.0,64,0.00,,---,0.01,VWS V14.01,2013-10-04 01:54:00,
2013-10-03 20:55:00,79.9,66.7,29.64,SE,136,9.0,17.0,64,0.00,,---,0.01,VWS V14.01,2013-10-04 01:55:00,
2013-10-03 20:56:00,79.8,66.6,29.64,SE,140,12.0,17.0,64,0.00,,---,0.01,VWS V14.01,2013-10-04 01:56:00,
2013-10-03 20:57:00,79.8,66.6,29.64,SE,133,14.0,17.0,64,0.00,,---,0.01,VWS V14.01,2013-10-04 01:57:00,
2013-10-03 20:58:00,79.8,66.6,29.64,SE,135,9.0,17.0,64,0.00,,---,0.01,VWS V14.01,2013-10-04 01:58:00,
2013-10-03 20:59:00,79.8,67.0,29.64,SE,134,11.0,17.0,65,0.00,,---,0.01,VWS V14.01,2013-10-04 01:59:00,
2013-10-03 21:01:00,79.6,66.8,29.64,SE,132,11.0,16.0,65,0.00,,---,0.01,VWS V14.01,2013-10-04 02:01:00,
2013-10-03 21:03:00,79.6,66.8,29.64,SE,136,11.0,16.0,65,0.00,,---,0.01,VWS V14.01,2013-10-04 02:03:00,
2013-10-03 21:04:00,79.6,66.8,29.64,SE,129,9.0,16.0,65,0.00,,---,0.01,VWS V14.01,2013-10-04 02:04:00,
2013-10-03 21:06:00,79.6,66.8,29.64,SE,138,11.0,17.0,65,0.00,,---,0.01,VWS V14.01,2013-10-04 02:06:00,
2013-10-03 21:07:00,79.4,66.6,29.64,SE,134,12.0,17.0,65,0.00,,---,0.01,VWS V14.01,2013-10-04 02:07:00,
2013-10-03 21:08:00,79.4,66.6,29.64,SE,138,14.0,17.0,65,0.00,,---,0.01,VWS V14.01,2013-10-04 02:08:00,
2013-10-03 21:09:00,79.4,66.6,29.64,SE,130,13.0,17.0,65,0.00,,---,0.01,VWS V14.01,2013-10-04 02:09:00,
2013-10-03 21:11:00,79.4,66.6,29.64,SE,136,15.0,15.0,65,0.00,,---,0.01,VWS V14.01,2013-10-04 02:11:00,
2013-10-03 21:12:00,79.4,66.6,29.64,SSE,149,7.0,15.0,65,0.00,,---,0.01,VWS V14.01,2013-10-04 02:12:00,
2013-10-03 21:13:00,79.4,66.6,29.64,SE,142,12.0,15.0,65,0.00,,---,0.01,VWS V14.01,2013-10-04 02:13:00,
2013-10-03 21:14:00,79.4,66.6,29.65,SE,130,11.0,18.0,65,0.00,,---,0.01,VWS V14.01,2013-10-04 02:14:00,
2013-10-03 21:16:00,79.4,66.6,29.65,SE,137,13.0,18.0,65,0.00,,---,0.01,VWS V14.01,2013-10-04 02:16:00,
2013-10-03 21:17:00,79.4,66.6,29.65,SE,145,9.0,18.0,65,0.00,,---,0.01,VWS V14.01,2013-10-04 02:17:00,
2013-10-03 21:18:00,79.4,66.6,29.65,SE,142,17.0,18.0,65,0.00,,---,0.01,VWS V14.01,2013-10-04 02:18:00,
2013-10-03 21:19:00,79.4,66.6,29.65,SSE,157,13.0,18.0,65,0.00,,---,0.01,VWS V14.01,2013-10-04 02:19:00,
2013-10-03 21:21:00,79.4,66.6,29.65,SE,132,15.0,17.0,65,0.00,,---,0.01,VWS V14.01,2013-10-04 02:21:00,
2013-10-03 21:22:00,79.4,66.6,29.65,SE,134,13.0,17.0,65,0.00,,---,0.01,VWS V14.01,2013-10-04 02:22:00,
2013-10-03 21:23:00,79.4,66.6,29.65,SE,143,14.0,17.0,65,0.00,,---,0.01,VWS V14.01,2013-10-04 02:23:00,
2013-10-03 21:24:00,79.4,66.6,29.65,SSE,155,9.0,17.0,65,0.00,,---,0.01,VWS V14.01,2013-10-04 02:24:00,
2013-10-03 21:27:00,79.4,66.6,29.65,SE,136,12.0,17.0,65,0.00,,---,0.01,VWS V14.01,2013-10-04 02:27:00,
2013-10-03 21:28:00,79.2,66.4,29.65,SE,145,19.0,20.0,65,0.00,,---,0.01,VWS V14.01,2013-10-04 02:28:00,
2013-10-03 21:29:00,79.4,66.6,29.65,SE,146,13.0,20.0,65,0.00,,---,0.01,VWS V14.01,2013-10-04 02:29:00,
2013-10-03 21:30:00,79.4,66.2,29.65,SE,136,11.0,20.0,64,0.00,,---,0.01,VWS V14.01,2013-10-04 02:30:00,
2013-10-03 21:32:00,79.4,66.2,29.65,SE,138,11.0,19.0,64,0.00,,---,0.01,VWS V14.01,2013-10-04 02:32:00,
2013-10-03 21:33:00,79.4,66.2,29.65,SE,138,7.0,19.0,64,0.00,,---,0.01,VWS V14.01,2013-10-04 02:33:00,
2013-10-03 21:34:00,79.2,66.4,29.65,SE,137,12.0,19.0,65,0.00,,---,0.01,VWS V14.01,2013-10-04 02:34:00,
2013-10-03 21:35:00,79.2,66.4,29.65,SE,141,16.0,19.0,65,0.00,,---,0.01,VWS V14.01,2013-10-04 02:35:00,
2013-10-03 21:37:00,79.4,66.2,29.65,SE,144,12.0,19.0,64,0.00,,---,0.01,VWS V14.01,2013-10-04 02:37:00,
2013-10-03 21:38:00,79.2,66.0,29.65,SE,136,15.0,19.0,64,0.00,,---,0.01,VWS V14.01,2013-10-04 02:38:00,
2013-10-03 21:39:00,79.2,66.4,29.65,SE,134,16.0,19.0,65,0.00,,---,0.01,VWS V14.01,2013-10-04 02:39:00,
2013-10-03 21:40:00,79.2,66.4,29.65,SE,130,10.0,19.0,65,0.00,,---,0.01,VWS V14.01,2013-10-04 02:40:00,
2013-10-03 21:42:00,79.0,66.2,29.65,SE,138,11.0,15.0,65,0.00,,---,0.01,VWS V14.01,2013-10-04 02:42:00,
2013-10-03 21:43:00,79.0,66.2,29.65,SE,138,9.0,15.0,65,0.00,,---,0.01,VWS V14.01,2013-10-04 02:43:00,
2013-10-03 21:44:00,79.0,66.2,29.65,SE,132,11.0,15.0,65,0.00,,---,0.01,VWS V14.01,2013-10-04 02:44:00,
2013-10-03 21:45:00,79.0,66.2,29.65,SE,129,13.0,15.0,65,0.00,,---,0.01,VWS V14.01,2013-10-04 02:45:00,
2013-10-03 21:47:00,79.0,66.2,29.65,SE,144,13.0,17.0,65,0.00,,---,0.01,VWS V14.01,2013-10-04 02:47:00,
2013-10-03 21:48:00,79.0,66.2,29.65,ESE,123,12.0,17.0,65,0.00,,---,0.01,VWS V14.01,2013-10-04 02:48:00,
2013-10-03 21:49:00,78.8,66.1,29.65,SE,142,13.0,17.0,65,0.00,,---,0.01,VWS V14.01,2013-10-04 02:49:00,
2013-10-03 21:50:00,78.8,66.1,29.65,SE,141,12.0,18.0,65,0.00,,---,0.01,VWS V14.01,2013-10-04 02:50:00,
2013-10-03 21:52:00,78.8,66.1,29.65,SE,130,9.0,15.0,65,0.00,,---,0.01,VWS V14.01,2013-10-04 02:52:00,
2013-10-03 21:53:00,78.8,66.1,29.65,SE,130,15.0,15.0,65,0.00,,---,0.01,VWS V14.01,2013-10-04 02:53:00,
2013-10-03 21:54:00,78.8,66.1,29.65,SE,132,12.0,15.0,65,0.00,,---,0.01,VWS V14.01,2013-10-04 02:54:00,
2013-10-03 21:55:00,78.8,66.1,29.65,SE,130,13.0,15.0,65,0.00,,---,0.01,VWS V14.01,2013-10-04 02:55:00,
2013-10-03 21:57:00,78.8,66.1,29.65,SE,126,11.0,20.0,65,0.00,,---,0.01,VWS V14.01,2013-10-04 02:57:00,
2013-10-03 21:58:00,78.8,66.1,29.65,SE,142,7.0,20.0,65,0.00,,---,0.01,VWS V14.01,2013-10-04 02:58:00,
2013-10-03 22:00:00,78.8,66.1,29.65,SE,126,10.0,20.0,65,0.00,,---,0.01,VWS V14.01,2013-10-04 03:00:00,
2013-10-03 22:02:00,78.6,65.9,29.65,SE,129,12.0,16.0,65,0.00,,---,0.01,VWS V14.01,2013-10-04 03:02:00,
2013-10-03 22:03:00,78.6,65.9,29.65,SE,127,15.0,16.0,65,0.00,,---,0.01,VWS V14.01,2013-10-04 03:03:00,
2013-10-03 22:04:00,78.6,65.9,29.65,SE,134,16.0,16.0,65,0.00,,---,0.01,VWS V14.01,2013-10-04 03:04:00,
2013-10-03 22:05:00,78.6,65.9,29.65,ESE,122,12.0,18.0,65,0.00,,---,0.01,VWS V14.01,2013-10-04 03:05:00,
2013-10-03 22:08:00,78.6,65.9,29.65,ESE,119,13.0,19.0,65,0.00,,---,0.01,VWS V14.01,2013-10-04 03:08:00,
2013-10-03 22:09:00,78.8,66.1,29.65,SE,128,11.0,19.0,65,0.00,,---,0.01,VWS V14.01,2013-10-04 03:09:00,
2013-10-03 22:10:00,78.6,65.9,29.65,SE,138,12.0,19.0,65,0.00,,---,0.01,VWS V14.01,2013-10-04 03:10:00,
2013-10-03 22:13:00,78.5,65.8,29.65,SE,141,14.0,16.0,65,0.00,,---,0.01,VWS V14.01,2013-10-04 03:13:00,
2013-10-03 22:14:00,78.5,64.9,29.65,SE,127,9.0,17.0,63,0.00,,---,0.01,VWS V14.01,2013-10-04 03:14:00,
2013-10-03 22:15:00,78.5,65.8,29.65,SE,126,10.0,20.0,65,0.00,,---,0.01,VWS V14.01,2013-10-04 03:15:00,
2013-10-03 22:18:00,78.3,65.6,29.65,SE,134,14.0,20.0,65,0.00,,---,0.01,VWS V14.01,2013-10-04 03:18:00,
2013-10-03 22:19:00,78.3,65.6,29.65,SE,145,13.0,20.0,65,0.00,,---,0.01,VWS V14.01,2013-10-04 03:19:00,
2013-10-03 22:20:00,78.3,65.6,29.65,ESE,117,10.0,20.0,65,0.00,,---,0.01,VWS V14.01,2013-10-04 03:20:00,
2013-10-03 22:23:00,78.3,65.6,29.65,SE,131,12.0,19.0,65,0.00,,---,0.01,VWS V14.01,2013-10-04 03:23:00,
2013-10-03 22:24:00,78.3,65.6,29.65,SE,142,8.0,19.0,65,0.00,,---,0.01,VWS V14.01,2013-10-04 03:24:00,
2013-10-03 22:25:00,78.3,65.6,29.65,SE,130,12.0,19.0,65,0.00,,---,0.01,VWS V14.01,2013-10-04 03:25:00,
2013-10-03 22:28:00,78.3,65.6,29.65,SE,137,12.0,20.0,65,0.00,,---,0.01,VWS V14.01,2013-10-04 03:28:00,
2013-10-03 22:29:00,78.3,65.6,29.65,SE,141,12.0,20.0,65,0.00,,---,0.01,VWS V14.01,2013-10-04 03:29:00,
2013-10-03 22:30:00,78.1,65.8,29.64,SSE,154,14.0,16.0,66,0.00,,---,0.01,VWS V14.01,2013-10-04 03:30:00,
2013-10-03 22:33:00,78.1,65.8,29.64,SE,138,21.0,21.0,66,0.00,,---,0.01,VWS V14.01,2013-10-04 03:33:00,
2013-10-03 22:34:00,78.1,65.8,29.64,SE,138,18.0,21.0,66,0.00,,---,0.01,VWS V14.01,2013-10-04 03:34:00,
2013-10-03 22:35:00,78.1,65.8,29.64,SE,140,11.0,21.0,66,0.00,,---,0.01,VWS V14.01,2013-10-04 03:35:00,
2013-10-03 22:38:00,78.1,65.8,29.64,SSE,151,15.0,21.0,66,0.00,,---,0.01,VWS V14.01,2013-10-04 03:38:00,
2013-10-03 22:39:00,78.1,65.8,29.64,SE,144,13.0,21.0,66,0.00,,---,0.01,VWS V14.01,2013-10-04 03:39:00,
2013-10-03 22:40:00,78.1,65.8,29.64,SE,128,13.0,15.0,66,0.00,,---,0.01,VWS V14.01,2013-10-04 03:40:00,
2013-10-03 22:43:00,78.1,65.8,29.64,SE,141,12.0,19.0,66,0.00,,---,0.01,VWS V14.01,2013-10-04 03:43:00,
2013-10-03 22:44:00,78.1,65.8,29.64,SE,142,13.0,19.0,66,0.00,,---,0.01,VWS V14.01,2013-10-04 03:44:00,
2013-10-03 22:45:00,77.9,65.6,29.64,SE,134,14.0,19.0,66,0.00,,---,0.01,VWS V14.01,2013-10-04 03:45:00,
2013-10-03 22:48:00,77.9,65.6,29.64,SE,142,17.0,19.0,66,0.00,,---,0.01,VWS V14.01,2013-10-04 03:48:00,
2013-10-03 22:49:00,77.9,65.6,29.64,SE,142,20.0,20.0,66,0.00,,---,0.01,VWS V14.01,2013-10-04 03:49:00,
2013-10-03 22:50:00,78.1,65.4,29.64,SE,136,18.0,18.0,65,0.00,,---,0.01,VWS V14.01,2013-10-04 03:50:00,
2013-10-03 22:51:00,78.1,65.4,29.64,SE,136,14.0,18.0,65,0.00,,---,0.01,VWS V14.01,2013-10-04 03:51:00,
2013-10-03 22:53:00,78.1,65.4,29.64,SE,142,6.0,20.0,65,0.00,,---,0.01,VWS V14.01,2013-10-04 03:53:00,
2013-10-03 22:54:00,77.9,65.2,29.64,SE,140,8.0,20.0,65,0.00,,---,0.01,VWS V14.01,2013-10-04 03:54:00,
2013-10-03 22:55:00,77.9,65.6,29.64,SE,131,17.0,20.0,66,0.00,,---,0.01,VWS V14.01,2013-10-04 03:55:00,
2013-10-03 22:56:00,77.9,65.6,29.64,SE,132,15.0,20.0,66,0.00,,---,0.01,VWS V14.01,2013-10-04 03:56:00,
2013-10-03 22:59:00,77.9,65.6,29.64,SE,142,8.0,20.0,66,0.00,,---,0.01,VWS V14.01,2013-10-04 03:59:00,
2013-10-03 23:00:00,77.9,65.6,29.64,SE,140,22.0,22.0,66,0.00,,---,0.01,VWS V14.01,2013-10-04 04:00:00,
2013-10-03 23:01:00,77.9,65.6,29.64,SSE,150,17.0,21.0,66,0.00,,---,0.01,VWS V14.01,2013-10-04 04:01:00,
2013-10-03 23:31:00,77.4,65.6,29.63,SSE,151,11.0,19.0,67,0.00,,---,0.01,VWS V14.01,2013-10-04 04:31:00,
2013-10-03 23:32:00,77.4,65.6,29.63,SE,142,16.0,25.0,67,0.00,,---,0.01,VWS V14.01,2013-10-04 04:32:00,
2013-10-03 23:34:00,77.4,65.6,29.63,SSE,152,11.0,26.0,67,0.00,,---,0.01,VWS V14.01,2013-10-04 04:34:00,
2013-10-03 23:35:00,77.4,65.6,29.63,SSE,153,9.0,26.0,67,0.00,,---,0.01,VWS V14.01,2013-10-04 04:35:00,
2013-10-03 23:38:00,77.4,65.6,29.63,SSE,165,7.0,26.0,67,0.00,,---,0.01,VWS V14.01,2013-10-04 04:38:00,
2013-10-03 23:40:00,77.2,65.4,29.63,SE,143,20.0,26.0,67,0.00,,---,0.01,VWS V14.01,2013-10-04 04:40:00,
2013-10-03 23:43:00,77.2,65.4,29.63,SSE,153,13.0,25.0,67,0.00,,---,0.01,VWS V14.01,2013-10-04 04:43:00,
2013-10-03 23:44:00,77.2,65.4,29.63,SSE,150,12.0,25.0,67,0.00,,---,0.01,VWS V14.01,2013-10-04 04:44:00,
2013-10-03 23:45:00,77.0,65.6,29.63,SE,146,11.0,25.0,68,0.00,,---,0.01,VWS V14.01,2013-10-04 04:45:00,
2013-10-03 23:46:00,77.0,65.6,29.63,SSE,150,15.0,25.0,68,0.00,,---,0.01,VWS V14.01,2013-10-04 04:46:00,
2013-10-03 23:47:00,77.0,65.6,29.63,SSE,160,14.0,25.0,68,0.00,,---,0.01,VWS V14.01,2013-10-04 04:47:00,
2013-10-03 23:49:00,77.0,65.6,29.63,SSE,156,9.0,25.0,68,0.00,,---,0.01,VWS V14.01,2013-10-04 04:49:00,
2013-10-03 23:50:00,77.0,65.6,29.63,SSE,166,11.0,26.0,68,0.00,,---,0.01,VWS V14.01,2013-10-04 04:50:00,
2013-10-03 23:51:00,77.0,65.6,29.63,SSE,163,5.0,18.0,68,0.00,,---,0.01,VWS V14.01,2013-10-04 04:51:00,
2013-10-03 23:54:00,77.0,65.6,29.63,SE,144,21.0,24.0,68,0.00,,---,0.01,VWS V14.01,2013-10-04 04:54:00,
2013-10-03 23:56:00,77.0,65.6,29.63,SSE,149,7.0,24.0,68,0.00,,---,0.01,VWS V14.01,2013-10-04 04:56:00,
2013-10-03 23:58:00,76.8,65.4,29.63,SSE,150,11.0,24.0,68,0.00,,---,0.01,VWS V14.01,2013-10-04 04:58:00,